GFSSGP_con_lsi_000.txt.gz
Lid_Strength_Index
1 3 4 6 10 13 15 14 13 12 12 11 9 9 10 11 10 12 4 4 4 2 -0 -0 -1 -1 -1 -1 -1 -1 -1 -1 -1 -1 -1 -1 -1 -1 -1 -1 -1 -1 -1 -1 -1 -2 -2 -2 -2
3 3 5 8 13 16 15 14 13 11 10 10 9 10 11 12 8 7 7 4 2 -0 -0 -0 -1 -1 -1 -1 -2 -1 -1 -1 -1 -1 -1 -1 -1 -1 -1 -1 -2 -1 -1 -1 -1 -2 -2 -2 -2
3 4 8 11 15 16 15 14 13 11 11 11 11 10 11 11 9 8 7 5 4 4 1 -0 -2 -1 -1 -2 -1 -2 -2 -2 -1 -1 -1 -1 -1 -1 -1 -1 -2 -2 -1 -1 -2 -2 -2 -2 -2
6 7 9 13 15 14 13 13 12 11 11 9 10 12 10 8 8 8 6 6 6 5 4 1 -2 -2 -2 -2 -2 -2 -1 -1 -2 -1 -1 -1 -1 -1 -1 -1 -1 -1 -1 -2 -2 -1 -2 -2 -2
7 10 13 14 15 14 13 12 11 12 12 11 11 12 11 9 8 8 8 7 7 7 5 4 0 -1 -1 -2 -2 -2 -2 -2 -2 -1 -1 -2 -2 -2 -2 -1 -1 -1 -1 -1 -1 -2 -1 -1 -1
9 11 14 16 15 13 13 12 11 12 12 12 12 12 12 10 10 10 9 9 8 8 7 6 4 1 1 -0 -0 -1 -2 -2 -2 -2 -2 -2 -2 -2 -2 -1 -1 -1 -1 -1 -2 -1 -1 -1 -1
11 12 13 14 14 13 12 11 12 13 13 12 12 13 12 11 10 10 10 10 10 9 9 8 8 6 3 2 1 1 1 -0 -2 -2 -2 -2 -1 -1 -1 -1 -1 -2 -2 -2 -1 -1 -1 -1 -1
10 12 13 14 14 14 12 11 11 11 12 11 11 14 15 13 11 11 11 11 11 10 10 10 9 8 7 7 3 2 3 2 0 -1 -1 -1 -1 -1 -0 -0 -1 -1 -2 -1 -1 -1 -1 -1 -1
9 12 14 14 14 13 11 12 11 12 13 13 12 13 12 12 12 12 12 12 11 10 11 11 10 10 9 8 7 5 4 4 2 1 -0 -1 -0 -0 -0 0 -0 -1 -1 -1 -1 -1 -1 -1 -0
11 13 13 12 12 13 12 12 12 13 14 14 14 13 13 13 13 13 14 14 13 13 11 11 11 11 10 8 8 8 7 7 5 3 3 0 -1 -0 -0 1 0 -1 -0 -1 -1 -1 -0 0 0
12 13 12 11 11 11 12 13 12 13 15 14 15 15 14 14 14 14 14 14 14 14 12 12 12 11 11 10 10 10 9 9 6 5 4 3 3 0 -1 -0 -0 -0 1 0 -0 -0 0 0 0
13 11 11 10 11 11 12 12 13 14 14 13 14 14 15 15 15 15 15 15 15 14 13 13 12 12 12 12 12 12 11 10 8 6 5 5 3 5 4 3 2 -0 0 1 0 0 1 1 0
12 11 11 11 11 11 11 13 14 15 14 14 14 14 15 15 15 15 15 15 15 15 14 14 13 13 12 13 13 12 12 12 10 8 7 5 5 6 5 5 5 3 2 -0 0 1 1 1 0
11 11 11 11 11 11 12 14 14 14 14 15 15 15 15 15 15 16 16 16 15 15 15 14 14 13 13 13 13 12 12 11 11 11 9 7 6 7 6 6 6 3 3 3 2 0 1 1 0
11 13 12 12 12 12 12 15 14 14 14 15 16 16 15 15 16 16 16 16 16 16 15 15 14 14 14 14 13 12 12 11 11 11 10 8 8 8 6 7 6 4 4 6 6 3 0 1 1
14 14 15 13 12 13 14 16 14 14 15 16 17 17 16 16 16 16 16 16 16 16 16 15 13 14 13 14 13 12 12 12 11 11 10 10 9 8 7 7 6 6 6 6 6 7 2 1 1
15 16 16 15 12 13 14 16 14 15 15 17 18 18 18 18 17 17 17 17 17 17 16 16 15 14 14 13 13 13 13 12 11 11 11 10 10 9 7 8 7 7 7 7 6 6 8 2 2
17 17 16 16 14 14 15 15 15 14 17 17 18 18 19 18 17 16 16 17 17 17 16 16 15 14 14 13 13 13 13 12 12 12 11 11 10 9 8 8 7 7 6 7 6 6 6 8 3
15 16 16 15 13 14 15 14 16 15 17 19 19 19 19 18 17 16 17 17 17 17 16 16 15 15 14 14 14 15 15 14 13 13 12 12 11 9 9 8 7 6 7 7 6 6 7 7 8
14 16 16 15 14 15 15 16 15 15 16 16 18 20 19 18 18 17 17 18 17 17 17 16 15 15 15 14 14 15 15 14 14 13 13 12 12 11 11 10 9 7 6 6 6 6 6 6 7
16 16 16 16 16 16 17 19 16 17 16 18 18 18 19 18 18 18 18 19 18 17 17 16 15 15 15 15 14 15 15 15 15 14 14 13 12 12 12 11 11 8 6 5 6 6 6 8 7
17 15 15 16 18 21 19 22 19 19 18 18 18 19 19 19 18 18 18 18 18 17 17 16 15 15 15 15 16 16 17 17 16 15 14 14 13 13 12 11 8 6 5 4 5 4 6 6 8
15 15 16 17 19 21 20 22 20 20 20 19 18 19 20 19 18 18 18 17 17 16 17 16 16 16 16 16 16 16 17 16 15 15 15 15 14 13 13 10 9 8 7 4 4 5 4 6 8
14 16 17 18 20 24 21 21 23 22 19 18 18 19 19 19 19 18 17 17 17 17 17 17 17 16 16 16 16 17 17 17 17 16 16 16 16 14 13 12 12 10 8 7 4 4 4 5 8
15 18 21 23 24 22 21 23 18 18 18 18 18 19 20 19 19 18 18 18 17 17 17 17 17 17 16 17 17 17 17 17 17 17 17 17 17 16 16 14 13 12 10 9 8 4 5 6 8
16 17 20 24 24 19 22 23 20 19 20 18 17 19 20 20 19 18 18 18 18 17 17 17 18 17 17 17 17 17 17 17 17 17 17 17 17 17 16 14 14 14 12 9 8 4 4 7 9
17 19 17 21 31 28 22 21 19 21 21 21 21 20 21 20 19 18 18 18 18 18 18 18 18 17 17 18 18 18 17 17 17 17 17 17 17 16 15 16 16 14 12 12 9 9 5 7 8
17 16 20 20 25 28 22 22 20 22 22 22 21 21 21 20 19 18 18 18 18 18 18 18 18 18 18 18 19 18 18 18 17 17 18 18 17 17 17 17 16 16 15 14 12 10 5 8 10
19 19 19 19 19 23 24 19 19 20 19 21 21 20 20 20 19 18 18 18 18 18 19 19 20 19 19 19 19 19 19 18 18 18 18 18 17 17 18 18 17 16 15 14 13 11 9 9 10
17 17 17 20 22 21 21 21 17 18 18 19 20 20 20 19 19 18 19 19 19 19 20 20 20 20 20 20 20 20 19 19 19 19 18 18 18 18 18 18 17 17 17 16 14 12 12 9 11

GFSSGP_con_lsi_003.txt.gz
Lid_Strength_Index
3 4 4 6 11 13 16 15 13 13 13 11 10 10 11 12 10 12 7 5 5 1 -1 0 -1 -2 -2 -1 -1 -2 -1 -1 -1 -1 -1 -1 -1 -1 -1 -1 -2 -1 -1 -1 -1 -1 -2 -2 -2
3 3 5 9 14 16 16 14 13 12 11 11 11 12 11 12 9 9 8 6 5 4 2 -0 -2 -2 -2 -1 -2 -2 -2 -2 -1 -1 -1 -1 -1 -1 -1 -1 -2 -1 -1 -1 -1 -1 -2 -2 -2
4 5 8 12 15 16 15 14 13 12 11 12 11 11 12 12 10 9 8 7 7 6 5 1 -2 -2 -2 -2 -1 -1 -1 -2 -2 -1 -1 -1 -1 -1 -1 -1 -1 -1 -1 -2 -2 -2 -2 -2 -2
7 7 10 14 16 15 14 13 12 11 12 11 12 13 11 10 10 9 8 7 9 8 7 4 0 -1 -1 -1 -2 -2 -1 -2 -2 -2 -2 -2 -2 -2 -1 -1 -1 -2 -1 -2 -2 -2 -2 -1 -1
8 11 13 15 15 13 14 12 12 12 13 13 12 13 13 10 9 10 10 9 9 9 8 7 2 1 1 1 1 0 -0 -1 -2 -2 -1 -1 -2 -2 -1 -1 -1 -1 -1 -1 -1 -2 -1 -1 -1
10 11 15 16 15 14 13 12 12 13 13 12 12 13 13 11 11 11 11 11 10 10 9 8 6 3 3 3 3 2 2 1 0 -1 -2 -2 -2 -2 -2 -1 -2 -2 -1 -1 -2 -1 -1 -1 -1
11 13 15 16 15 14 13 12 13 13 13 13 12 14 13 13 12 12 12 12 12 11 10 10 9 7 5 5 4 4 3 3 2 1 1 -0 -2 -2 -2 -1 -1 -1 -2 -2 -2 -1 -1 -1 -1
11 12 14 15 15 14 12 12 12 12 13 12 12 15 16 13 12 12 13 13 12 12 11 11 11 10 9 9 6 5 5 5 4 3 3 2 1 0 -1 -1 -1 -2 -2 -2 -2 -1 -1 -1 -1
10 13 15 15 14 13 12 12 13 13 13 14 14 14 13 12 13 14 14 14 13 12 12 12 11 11 10 10 9 8 7 6 5 5 4 4 5 3 2 1 2 0 -1 -1 -2 -1 -1 -1 -0
12 14 14 13 13 13 12 12 13 14 15 16 16 14 14 14 14 15 16 16 15 14 13 12 12 12 12 10 11 11 10 10 8 7 7 6 5 4 5 4 3 3 3 2 -1 -1 -1 0 -0
13 15 12 12 12 11 12 13 13 14 15 15 16 15 15 15 15 15 16 16 16 16 14 13 13 13 13 12 12 12 12 12 10 9 8 7 6 6 7 6 6 5 5 3 3 0 -0 0 0
13 12 12 10 10 12 12 12 14 14 14 13 14 15 16 16 16 16 16 16 16 16 15 14 14 13 14 13 13 13 13 12 12 10 9 8 8 8 9 8 7 7 6 3 4 5 5 0 0
13 12 11 11 11 12 11 13 13 14 15 15 15 15 16 16 16 16 15 16 16 16 16 15 15 14 14 14 14 14 14 13 13 12 11 9 10 9 9 9 7 8 5 5 5 7 7 6 3
12 12 11 12 11 11 12 14 14 15 15 16 16 16 17 16 16 17 17 17 17 16 16 15 15 15 14 14 14 14 14 13 13 13 12 10 10 10 11 10 8 8 7 6 7 7 7 8 7
12 13 12 13 12 12 12 14 14 14 16 16 16 17 17 17 17 17 16 17 17 17 16 16 15 14 15 15 14 14 14 13 13 13 12 11 10 11 11 11 9 8 8 7 8 8 7 7 7
13 14 15 13 12 13 13 15 13 15 16 17 17 18 17 17 17 17 17 17 18 17 16 16 14 15 15 15 15 14 14 14 13 13 13 12 12 11 12 11 10 9 8 7 8 8 8 8 8
15 16 16 14 12 13 14 16 14 15 15 17 18 18 18 18 18 17 17 17 17 17 17 16 16 15 15 15 15 15 14 14 14 14 13 13 12 12 12 12 11 10 8 7 8 8 7 8 7
16 17 16 17 15 14 15 15 14 15 15 16 17 19 19 19 18 17 17 17 17 17 17 17 16 16 15 15 15 15 15 15 15 15 14 13 13 13 13 12 12 11 10 9 7 7 6 6 6
16 17 17 15 14 15 15 14 13 15 16 17 19 19 19 19 17 17 17 17 18 18 17 17 16 16 16 16 17 16 17 16 16 15 14 14 14 13 14 13 13 13 13 12 9 7 7 7 6
16 17 17 15 15 15 16 16 14 15 15 16 16 18 19 19 19 18 18 18 18 18 17 17 17 16 16 16 16 17 18 18 17 16 15 15 14 14 14 14 14 14 13 13 11 9 8 7 6
16 17 17 17 16 16 18 20 17 16 15 15 16 17 18 18 19 19 19 18 19 18 18 17 17 16 16 17 16 17 17 18 18 17 16 15 15 14 14 14 14 14 13 12 10 8 7 8 7
17 15 16 16 18 21 18 22 20 18 17 16 17 19 18 19 19 19 19 19 18 18 18 17 17 17 16 17 17 18 20 20 19 18 17 16 15 15 15 14 14 14 13 14 12 10 9 7 8
15 15 17 18 19 20 20 22 21 20 19 17 17 18 18 19 19 19 19 18 17 17 18 18 18 17 16 17 18 18 19 18 18 18 18 17 16 15 15 15 14 15 15 15 14 11 9 6 6
14 16 17 19 20 24 21 21 23 20 18 18 18 18 19 19 19 19 18 18 18 18 18 18 18 17 17 18 18 19 20 19 19 19 18 18 17 16 16 15 16 16 15 15 13 11 10 9 7
15 17 20 22 24 22 22 23 18 16 17 18 18 18 19 19 19 19 19 19 18 19 18 18 18 18 18 18 19 20 20 20 20 19 19 18 18 17 17 16 16 16 16 14 14 14 11 9 9
16 16 19 23 24 20 22 22 19 18 19 20 19 18 19 20 19 19 19 19 19 19 18 19 19 19 19 20 20 20 20 20 19 19 19 18 18 18 17 17 16 16 16 16 14 13 13 10 10
17 19 17 19 30 27 20 20 18 20 20 21 20 21 21 20 20 19 19 19 19 19 19 19 20 20 20 20 21 21 22 21 20 20 19 18 18 17 17 17 17 17 17 15 16 16 15 13 10
17 16 20 20 25 28 22 21 18 19 19 22 22 21 20 20 20 19 19 19 19 19 19 20 20 21 21 21 22 21 22 21 20 20 20 19 18 18 18 18 17 17 17 17 17 16 15 13 12
19 19 19 18 19 23 26 19 17 17 18 21 21 20 20 20 20 19 19 19 19 19 20 21 21 21 21 21 22 22 22 21 21 20 20 19 19 18 18 18 18 17 17 17 17 17 17 16 14
17 17 17 19 21 21 20 19 19 17 17 20 20 20 20 19 20 20 19 19 20 20 21 21 22 22 22 22 22 23 22 22 22 21 20 19 19 19 18 18 18 18 17 18 18 18 17 16 14

GFSSGP_con_lsi_006.txt.gz
Lid_Strength_Index
3 3 4 7 12 14 16 15 13 13 13 12 11 11 12 12 11 13 7 7 6 5 3 0 -2 -2 -2 -2 -2 -2 -1 -1 -1 -1 -1 -1 -1 -1 -1 -1 -1 -1 -1 -1 -1 -1 -2 -2 -2
4 4 6 10 14 16 16 14 14 13 11 12 11 12 12 13 10 9 9 7 7 6 5 0 -2 -2 -2 -1 -1 -1 -2 -2 -2 -2 -2 -2 -1 -1 -1 -1 -1 -1 -1 -2 -2 -2 -2 -2 -2
4 5 8 13 16 16 16 14 13 13 12 12 12 11 13 12 11 10 9 8 8 8 7 2 -1 -0 -1 -1 0 0 -0 -1 -2 -2 -2 -2 -2 -2 -2 -1 -1 -1 -2 -2 -2 -2 -2 -2 -1
7 8 11 14 15 14 13 14 13 12 13 11 12 13 12 11 11 10 9 9 10 10 8 4 2 1 1 1 0 0 -1 -1 -1 -1 -1 -1 -2 -2 -2 -2 -1 -1 -1 -2 -2 -2 -2 -2 -1
9 11 14 16 15 13 13 13 12 12 13 13 13 14 13 11 11 11 12 11 11 11 9 8 4 3 3 2 2 2 1 1 -0 0 -1 -2 -1 -1 -1 -2 -2 -2 -2 -2 -2 -2 -2 -1 -1
10 12 15 16 16 13 13 13 12 13 13 12 13 14 13 12 12 12 12 13 12 12 10 9 6 5 4 4 4 3 3 2 2 2 1 1 1 -0 -1 -0 -0 -2 -2 -2 -2 -2 -2 -1 -1
12 13 16 17 16 14 13 12 13 13 13 13 12 15 14 13 12 12 13 13 12 12 11 11 11 8 7 6 5 5 5 4 4 4 4 3 2 1 3 3 1 1 1 0 -1 -1 -2 -2 -1
12 13 16 16 15 14 12 13 13 13 13 13 13 15 16 14 12 13 14 14 13 12 12 12 12 11 11 10 7 7 6 6 6 6 6 6 4 4 5 5 3 2 2 2 1 0 -1 -1 -1
11 13 15 15 15 14 12 13 14 14 14 15 14 14 13 13 13 14 16 15 14 13 13 13 13 13 12 11 10 9 8 8 7 7 6 7 7 7 8 6 5 4 3 3 1 1 2 -0 -1
13 14 14 13 14 14 13 13 13 14 15 16 16 15 14 14 15 15 16 16 16 16 14 14 14 14 13 11 13 13 12 12 11 10 9 8 8 8 8 8 7 5 5 4 2 4 5 6 5
13 15 13 12 12 12 12 14 13 14 15 15 16 15 15 15 16 16 16 16 16 17 15 15 14 14 14 14 13 14 13 13 12 12 10 9 9 10 10 10 10 8 7 6 6 6 6 6 6
13 13 12 11 11 12 13 13 14 14 13 14 14 14 16 16 16 16 17 17 17 16 16 15 15 15 15 14 14 14 14 13 13 13 11 11 11 11 11 11 11 9 8 8 7 7 7 7 6
13 13 11 11 11 12 12 12 13 14 15 15 15 15 16 16 16 16 16 16 17 16 16 16 15 15 15 15 15 15 15 14 14 13 12 11 12 12 12 12 12 10 9 9 9 8 8 8 7
13 12 12 11 11 12 12 14 14 14 16 16 16 16 17 17 17 17 17 17 17 16 16 16 15 15 15 15 15 15 15 14 14 14 13 12 12 13 13 13 12 12 10 9 9 8 8 8 8
12 13 13 13 12 12 13 14 14 15 16 16 17 17 17 17 17 17 17 17 17 17 17 16 15 15 15 15 15 15 15 14 14 14 13 13 13 13 14 14 13 12 11 10 9 9 8 9 8
14 14 15 14 13 13 14 15 13 15 16 17 17 18 17 17 17 17 17 17 18 17 17 16 14 15 15 16 15 15 15 15 15 15 15 14 14 14 15 15 14 12 13 13 11 9 9 9 8
15 16 17 14 13 14 14 15 13 15 16 16 17 18 17 18 18 18 18 18 18 17 17 16 16 16 16 16 16 16 16 16 16 16 16 15 15 14 15 15 14 14 14 13 12 11 10 9 8
16 17 17 17 15 15 16 15 12 15 16 15 16 17 18 18 18 18 18 18 18 18 17 17 16 16 16 16 16 17 17 17 17 17 16 15 15 15 15 15 15 14 15 15 14 14 12 10 8
15 17 17 16 14 15 15 15 13 12 16 16 16 17 17 17 18 18 18 18 18 18 18 17 17 17 17 17 18 18 19 18 18 17 16 16 16 15 16 16 16 15 15 15 14 14 13 12 9
16 17 17 16 16 16 16 16 14 13 14 15 15 16 17 17 19 18 18 19 19 18 18 18 17 17 17 17 18 18 19 18 18 17 17 17 16 16 16 16 16 16 16 15 15 13 12 11 9
17 17 18 17 17 17 18 18 18 15 15 14 14 14 16 17 18 18 19 19 19 19 19 18 17 17 17 18 18 18 18 19 19 19 19 18 17 16 16 16 16 16 15 16 14 16 15 15 12
17 16 17 17 19 20 17 20 19 16 16 16 15 16 16 17 18 18 18 20 20 19 18 18 18 18 17 18 18 20 20 21 20 20 19 18 17 17 17 16 17 16 15 16 16 15 15 15 15
16 16 18 18 19 21 21 22 20 20 18 14 15 15 16 17 18 18 18 18 19 18 19 19 19 19 18 18 19 20 20 20 20 20 20 19 18 17 17 17 17 16 16 16 17 16 16 14 14
15 17 18 20 21 23 20 20 22 20 18 16 16 17 17 18 18 18 18 19 18 19 19 19 19 19 18 19 19 20 21 21 21 21 21 20 19 18 17 17 17 17 17 17 17 16 15 15 15
16 17 20 22 23 21 22 23 19 17 17 16 16 17 18 19 19 19 19 19 19 19 19 19 19 20 19 20 20 21 21 22 22 21 21 20 20 19 19 18 17 17 17 16 16 16 17 17 16
17 16 19 24 24 21 23 23 19 17 16 18 19 18 18 20 19 19 19 18 19 19 20 19 20 20 20 20 21 21 21 21 21 21 21 21 20 20 18 18 17 17 17 17 16 17 16 15 16
18 19 17 20 29 26 20 20 18 17 18 18 19 18 19 21 20 19 19 19 20 20 20 20 20 20 21 21 21 22 22 22 22 22 21 21 20 19 18 18 18 18 17 17 17 17 17 17 17
18 16 19 20 24 28 22 21 19 16 17 16 19 20 20 21 20 19 19 19 20 20 20 20 21 21 21 22 22 22 23 22 22 22 22 21 20 19 19 19 18 18 17 17 17 17 17 17 16
20 19 20 19 20 23 26 20 18 16 15 15 17 19 20 20 20 19 19 19 19 20 20 21 21 22 22 22 23 23 23 22 22 22 22 21 20 20 19 19 18 18 18 17 17 17 17 17 16
17 17 17 19 20 22 21 19 17 16 15 16 17 18 20 20 20 19 19 20 20 20 21 22 22 23 23 23 23 23 23 23 23 23 22 21 21 20 20 19 19 19 19 18 18 18 17 16 17

GFSSGP_con_lsi_009.txt.gz
Lid_Strength_Index
2 2 3 6 9 11 13 12 10 11 10 10 9 9 9 10 9 10 5 6 6 5 3 -0 -2 -2 -2 -2 -1 -2 -2 -2 -2 -2 -2 -2 -2 -2 -1 -1 -1 -1 -1 -2 -2 -2 -2 -2 -2
3 3 5 9 12 14 13 12 11 10 10 10 10 10 10 10 9 8 7 7 7 6 4 0 -2 -2 -2 -0 -0 -0 -1 -1 -2 -2 -2 -2 -2 -2 -2 -2 -1 -1 -2 -2 -2 -2 -2 -2 -2
4 5 7 11 14 14 13 11 11 11 10 10 10 10 10 10 9 9 8 8 8 7 5 2 0 0 -0 -1 0 0 -0 -1 -1 -1 -1 -2 -2 -2 -2 -2 -2 -2 -2 -2 -2 -2 -2 -2 -2
5 6 10 12 12 12 11 11 11 11 10 10 10 11 10 9 9 8 9 9 9 8 6 3 2 2 1 1 1 0 -0 -1 -1 -1 -1 -1 -1 -1 -1 -1 -1 -2 -2 -2 -2 -2 -2 -2 -2
8 9 12 13 12 11 11 11 11 11 10 10 10 11 11 10 10 10 10 10 10 10 8 5 4 3 2 2 2 2 2 2 2 1 1 0 -1 1 1 1 0 0 -0 -1 -2 -2 -2 -1 -2
9 10 13 14 13 11 11 10 11 11 11 11 11 12 11 9 11 11 11 11 10 10 9 8 6 5 4 4 3 3 3 3 3 3 3 2 2 3 3 2 2 1 1 1 -0 -1 -1 -2 -1
10 12 13 14 14 12 11 11 11 11 11 11 11 12 11 11 10 11 11 11 11 11 10 10 9 8 7 6 5 5 5 5 4 4 5 5 5 5 5 4 3 3 2 2 0 -0 0 0 -1
11 11 14 14 14 13 11 11 11 11 11 11 10 12 12 11 11 11 11 12 11 11 12 11 11 10 10 9 7 7 6 6 6 6 6 6 7 6 7 6 5 4 3 3 1 2 2 3 3
9 12 14 13 14 12 12 11 12 12 12 12 12 12 12 11 12 13 13 13 12 12 12 12 12 11 11 11 10 9 9 8 8 8 7 8 8 8 8 8 7 5 5 4 3 4 4 4 5
11 13 12 12 12 12 12 11 12 12 13 13 14 13 13 12 13 14 14 14 14 13 13 12 12 12 11 12 11 11 11 11 10 10 9 9 9 9 9 9 9 7 7 6 5 5 5 6 6
11 13 11 11 11 11 11 12 12 12 13 12 13 14 13 13 14 14 15 14 14 14 14 13 13 12 12 12 12 12 11 11 11 11 10 10 10 10 10 10 10 9 8 8 7 7 7 7 6
12 11 11 10 10 11 11 12 12 13 11 11 12 13 13 14 14 15 15 15 15 14 14 14 13 13 13 12 12 12 12 12 12 11 11 11 11 11 11 11 11 10 10 9 8 8 7 7 7
12 12 11 10 11 11 11 11 11 13 12 13 14 14 14 14 15 15 14 14 15 15 14 14 13 13 13 13 13 13 13 12 12 12 11 11 12 12 12 12 12 11 10 10 10 9 8 8 8
12 11 11 11 11 11 12 12 12 12 14 14 15 14 14 14 15 15 16 15 15 15 15 14 14 13 13 13 13 13 13 13 12 12 12 12 12 13 13 13 13 12 11 12 11 10 9 9 8
12 13 12 12 12 12 12 13 13 12 14 15 15 15 15 15 15 15 15 15 15 15 15 14 14 14 14 14 13 13 13 13 13 13 13 13 13 14 14 14 14 13 13 13 12 11 10 9 8
13 14 15 13 12 12 12 14 12 13 15 14 15 16 15 15 15 15 15 16 16 15 15 14 13 14 14 14 14 14 13 14 14 14 14 14 14 14 14 14 14 14 14 13 13 13 12 11 10
14 15 15 14 13 13 13 14 12 14 15 14 15 16 16 15 16 15 15 16 16 15 15 15 14 14 14 14 14 14 14 14 15 15 15 14 15 15 15 15 15 14 14 14 14 14 13 13 12
16 16 16 16 14 14 15 15 12 13 15 14 14 15 16 16 15 15 16 16 16 16 16 15 15 14 14 14 15 15 15 15 15 15 15 15 15 15 16 15 15 15 15 15 14 14 13 13 12
15 15 15 15 14 15 15 15 13 11 14 14 15 16 15 15 14 16 16 16 17 16 16 16 16 15 15 15 16 16 17 16 16 16 15 16 16 15 16 16 15 15 16 16 15 14 14 13 12
15 16 16 15 15 16 16 16 13 13 12 11 12 14 15 15 17 17 16 17 17 17 16 16 16 16 15 16 16 16 17 17 16 16 16 16 16 16 16 16 16 16 16 16 15 15 15 15 13
16 16 17 16 16 16 18 18 17 15 14 13 13 13 14 15 16 17 17 17 17 17 17 17 16 16 16 16 16 17 17 17 18 17 17 17 16 16 16 16 16 16 16 16 15 15 16 16 15
16 15 16 17 17 19 17 19 18 15 14 14 13 15 14 15 15 16 17 18 17 17 17 17 17 17 16 17 17 18 19 19 18 18 17 17 17 17 16 16 16 16 16 16 15 15 16 16 17
15 16 16 17 18 20 20 21 18 19 17 14 13 14 15 15 16 17 17 17 17 17 17 17 17 17 17 17 17 18 19 19 18 19 19 18 17 17 17 17 16 16 16 16 15 16 16 16 16
15 17 17 20 20 23 18 19 20 19 17 15 14 14 15 16 16 16 16 16 17 17 17 18 18 18 18 18 18 19 19 20 20 20 20 19 19 18 18 17 16 16 16 16 16 16 16 16 15
16 16 19 21 23 21 22 23 18 17 16 15 14 14 15 16 17 18 17 18 17 18 18 18 18 19 18 18 19 19 20 20 21 20 20 20 20 19 19 18 17 17 16 16 16 16 16 15 15
17 15 18 23 24 20 24 23 18 17 14 16 16 16 17 17 18 18 18 18 17 18 18 18 18 19 19 19 19 20 20 20 21 21 21 21 21 20 19 18 18 17 17 17 17 16 15 15 14
18 19 17 21 30 25 20 19 17 17 17 17 17 18 17 17 18 18 18 17 17 18 18 18 19 19 20 20 20 21 21 21 22 21 21 21 21 20 19 19 19 18 18 18 17 16 15 15 15
18 17 19 19 23 26 21 19 18 17 16 15 16 16 16 17 19 19 18 18 18 18 18 19 19 20 20 20 21 21 22 22 22 22 22 22 21 21 20 20 19 19 18 17 17 16 16 16 15
19 19 19 17 19 22 23 19 18 16 15 15 14 15 16 17 19 19 18 18 18 19 19 20 20 20 21 21 22 22 22 22 22 22 22 22 22 21 21 21 20 20 19 18 18 17 17 17 16
18 17 16 19 20 21 21 19 16 16 15 15 14 15 16 17 19 19 19 19 19 19 20 20 21 21 21 22 22 23 23 23 23 23 23 22 22 22 22 21 21 20 20 19 19 19 18 18 18

GFSSGP_con_lsi_015.txt.gz
Lid_Strength_Index
-1 -1 -1 2 7 7 9 8 6 7 7 5 5 5 6 5 6 9 3 3 1 0 -1 -1 -1 -1 -1 -1 -1 -1 -1 -1 -1 -1 -1 -1 -1 -1 -1 -1 -1 -1 -1 -1 -1 -1 -1 -1 -1
-1 0 1 4 8 10 9 6 8 6 5 5 5 6 6 6 4 5 4 4 1 1 0 -0 -1 -2 -2 -1 -1 -1 -1 -1 -1 -1 -1 -1 -2 -2 -2 -2 -2 -1 -2 -2 -2 -2 -1 -1 -1
-0 0 4 6 8 9 9 7 6 6 5 5 6 5 5 5 5 4 4 3 2 2 1 1 0 -0 -1 -2 -1 -0 -0 -1 -1 -1 -2 -2 -1 -1 -1 -1 -1 -1 -1 -2 -2 -2 -2 -1 -1
1 2 4 7 8 7 7 6 6 6 6 5 5 6 6 4 4 4 5 4 3 3 2 2 1 1 0 0 0 0 0 -0 -0 -1 -1 0 1 1 1 0 -0 -1 -1 -1 -2 -2 -2 -2 -1
2 3 7 8 8 7 6 6 6 6 6 6 6 7 6 5 5 5 5 5 4 4 3 3 2 2 2 1 1 2 2 2 2 1 2 2 2 2 2 2 1 1 1 -0 -2 -1 -1 -1 -1
5 5 8 9 8 7 7 6 6 6 6 6 7 6 6 5 6 5 6 6 6 5 5 5 4 3 3 3 3 3 2 3 3 3 3 3 4 3 3 3 3 2 2 2 1 1 1 1 0
5 6 8 8 8 8 7 6 7 6 6 7 6 7 6 7 5 6 6 6 7 7 7 6 5 5 5 5 4 4 4 4 4 5 5 5 5 5 5 5 4 3 3 3 3 3 2 2 2
5 6 8 8 9 8 7 6 6 6 6 6 5 7 6 6 6 6 7 7 7 8 7 7 7 7 6 6 6 6 6 6 6 7 7 8 6 7 7 7 6 5 5 4 4 4 3 3 3
4 8 8 8 8 8 7 7 6 6 6 6 6 6 7 5 7 7 8 8 8 9 8 8 8 8 7 7 8 7 8 8 8 7 8 6 7 7 7 7 7 6 6 5 5 4 4 5 4
6 7 7 6 6 7 7 7 6 8 7 7 6 6 7 6 8 8 9 9 9 9 9 8 8 8 8 9 8 8 8 8 8 7 7 8 7 8 8 7 8 7 7 7 6 6 6 5 6
6 8 7 6 6 7 7 7 6 7 8 6 6 6 7 7 8 8 8 8 8 8 9 9 9 8 8 9 8 8 8 8 8 8 8 8 8 8 8 8 8 8 7 8 8 8 8 7 7
7 6 6 6 7 7 7 6 7 7 6 5 5 4 6 7 8 8 8 7 8 8 9 9 9 9 8 8 8 8 9 8 9 9 9 9 9 9 9 9 9 8 8 9 9 8 8 8 7
7 6 6 6 7 7 7 8 7 6 5 4 5 7 6 7 7 7 6 6 7 8 9 9 9 9 9 9 9 9 9 9 9 9 9 9 9 10 10 10 10 10 10 10 10 10 9 9 8
6 7 7 6 6 7 8 7 8 6 5 5 5 7 6 6 7 6 7 7 8 8 9 9 10 9 10 10 9 9 9 10 10 9 10 10 10 10 11 10 10 10 11 11 10 10 10 10 9
7 9 7 7 7 8 7 9 8 6 6 6 6 6 7 6 6 6 6 7 7 8 9 9 10 9 10 10 10 10 10 10 10 10 11 11 11 11 11 11 11 11 11 11 11 11 11 11 10
8 8 10 7 7 8 8 10 7 5 7 7 7 6 7 7 7 6 6 7 7 8 9 9 10 10 10 10 10 10 10 10 10 11 11 11 12 12 12 12 12 12 12 12 12 12 12 12 11
8 10 9 8 7 8 9 9 7 6 7 7 7 6 6 7 7 6 6 6 7 8 9 10 10 10 10 10 10 10 10 11 11 11 12 12 12 13 13 13 12 12 12 12 12 12 12 13 12
10 10 9 9 8 9 9 10 7 6 7 7 7 7 6 6 7 7 6 6 7 8 9 10 10 10 10 10 11 11 11 11 12 12 12 12 13 13 13 13 13 13 13 13 13 13 12 13 12
8 9 10 9 7 9 9 9 8 7 7 7 7 7 6 6 5 6 7 7 8 8 9 10 11 11 10 11 11 12 12 12 12 12 13 13 14 14 13 13 14 13 14 13 13 13 14 13 12
9 10 10 8 7 10 10 10 9 8 8 7 7 7 7 6 6 7 8 7 9 9 10 10 11 11 11 11 11 11 12 12 12 12 13 13 14 14 14 14 14 14 14 14 14 13 14 13 13
10 11 10 10 8 10 11 12 10 9 8 8 8 7 7 7 7 8 9 9 9 10 10 11 10 11 11 11 11 12 13 13 14 14 13 13 13 14 14 14 14 14 14 14 14 14 14 15 14
12 9 9 10 11 13 11 15 11 9 9 9 9 8 7 8 7 8 9 10 10 10 10 11 11 11 11 11 12 13 14 15 14 13 13 14 14 14 14 14 15 15 15 15 14 14 15 15 16
10 10 10 10 11 11 12 14 12 12 12 11 10 8 7 6 8 9 9 10 10 10 10 10 11 11 11 11 12 13 13 13 13 14 14 14 14 14 15 15 15 15 15 14 14 15 15 15 15
10 11 12 12 12 16 12 13 13 12 12 10 9 9 7 8 8 8 9 9 10 10 10 11 11 12 12 12 12 13 13 13 14 15 15 15 14 15 15 15 15 15 15 15 15 15 15 15 15
11 12 14 15 16 16 11 13 12 10 10 10 10 9 8 8 8 9 10 11 10 11 11 11 12 13 12 12 13 13 13 13 14 14 15 15 16 16 15 15 16 16 16 15 16 16 16 16 15
12 10 14 18 16 15 13 16 13 9 9 9 9 9 9 9 9 9 10 11 11 11 11 12 12 13 13 13 13 13 14 14 15 15 15 16 16 16 16 16 16 16 16 16 16 16 16 16 15
11 14 10 13 15 16 15 12 10 10 10 10 10 10 9 9 10 10 10 10 11 11 12 12 13 13 14 14 14 14 15 15 16 16 16 16 16 17 17 17 17 17 17 17 17 17 17 16 16
12 11 14 13 18 18 16 14 13 12 12 11 11 10 9 9 9 9 10 10 11 11 12 12 13 14 14 14 14 15 16 16 16 16 17 17 17 17 18 18 18 18 18 18 17 18 17 17 16
15 15 15 15 14 17 18 16 12 12 10 10 10 10 9 8 9 9 10 10 11 11 12 12 13 13 14 15 15 16 16 17 17 17 18 18 18 18 19 18 18 19 19 18 19 19 18 18 18
12 13 13 15 16 15 15 16 11 10 10 10 10 9 8 8 8 9 9 10 11 12 12 12 13 13 14 15 15 17 17 18 18 18 18 18 19 19 19 19 19 19 19 19 20 20 19 19 19

GFSSGP_con_lsi_021.txt.gz
Lid_Strength_Index
-1 -0 2 4 9 11 14 12 11 10 10 9 7 8 8 8 8 11 5 2 1 0 -0 -1 -2 -1 -1 -2 -1 -1 -1 -2 -2 -2 -2 -2 -2 -2 -2 -1 -1 -1 -2 -2 -2 -2 -2 -1 -1
1 1 4 7 12 14 13 12 11 10 9 8 7 8 8 9 6 6 6 2 1 1 0 -0 -2 -1 -1 -1 -1 -1 -1 -1 -1 -1 -2 -2 -2 -2 -2 -2 -2 -2 -2 -2 -2 -2 -2 -2 -1
2 2 7 10 12 14 13 11 10 9 9 9 9 8 9 8 7 6 5 3 2 2 1 -0 -2 -2 -2 -2 -1 -1 -1 -1 -1 -2 -2 -2 -1 -1 -1 -1 -1 -1 -2 -2 -2 -2 -2 -2 -2
5 6 8 12 13 12 12 12 10 10 10 9 9 11 9 7 6 6 4 3 4 3 2 -1 -2 -2 -2 -2 -2 -2 -2 -2 -1 -1 -0 0 1 1 1 1 1 1 0 -0 0 0 0 0 -0
6 8 11 13 13 12 12 9 10 10 10 10 9 11 10 8 7 5 4 4 5 4 3 2 -1 -1 -1 -1 -1 -0 -1 -1 0 1 1 2 2 2 2 1 1 2 1 1 1 1 2 2 2
9 10 14 14 13 11 11 9 9 10 10 10 10 11 10 8 8 7 6 6 5 5 4 3 0 -0 0 0 1 1 1 1 2 2 2 2 3 3 3 2 2 2 2 2 2 2 2 2 2
10 10 12 13 12 11 10 10 10 10 10 10 9 10 10 10 8 8 7 7 6 6 6 6 5 3 1 1 1 2 2 3 3 3 4 4 4 4 5 4 4 3 3 3 3 3 3 3 3
9 11 13 13 12 12 10 10 10 10 9 9 8 10 11 9 8 9 10 9 8 8 7 7 7 7 7 5 2 3 4 4 5 5 5 5 6 6 6 6 5 4 4 4 4 4 4 5 4
8 13 14 12 12 11 10 10 10 10 10 10 8 9 9 8 9 10 11 11 10 9 9 9 8 8 8 8 6 4 5 5 6 7 6 7 10 9 9 6 6 5 5 5 5 5 6 6 6
9 13 11 10 11 11 10 10 9 11 11 10 10 10 8 9 9 10 11 12 12 11 11 10 10 9 9 8 9 10 9 9 9 10 10 10 11 10 9 7 7 8 8 7 7 7 8 9 11
10 12 9 9 9 9 10 11 9 10 11 10 10 10 9 10 10 10 10 11 11 11 11 10 10 10 10 11 10 11 11 11 11 11 11 10 11 11 12 12 12 12 10 12 12 12 12 12 11
11 9 8 8 9 9 10 9 10 10 9 8 8 8 9 10 10 10 10 11 11 12 11 10 11 11 12 11 10 11 11 11 11 12 11 12 12 13 13 13 13 13 13 14 14 13 13 13 12
10 9 8 8 9 9 9 10 10 10 9 8 8 9 9 10 10 10 10 10 10 11 11 11 11 11 11 11 11 12 12 12 12 12 12 12 13 14 13 14 14 14 14 14 14 14 14 13 13
10 9 9 9 9 9 10 11 10 9 8 8 9 9 10 9 10 10 11 10 10 10 11 11 11 11 10 11 12 12 12 12 12 13 13 13 13 14 14 14 14 15 15 14 14 14 14 14 14
9 11 10 10 9 10 9 11 11 8 9 9 9 9 10 9 9 9 9 9 9 9 10 11 11 11 11 11 12 12 12 12 13 13 13 13 13 14 14 15 15 15 15 15 15 15 15 15 14
12 13 14 11 10 10 10 13 10 8 10 9 10 10 10 9 9 8 8 9 9 10 11 11 10 11 11 12 12 12 12 13 13 13 14 14 14 14 15 15 15 15 15 16 16 16 16 16 16
13 15 14 12 10 11 11 13 10 9 10 10 11 10 10 10 9 9 8 9 9 10 11 11 11 12 12 13 12 13 13 13 13 14 14 14 14 14 15 15 16 15 16 16 15 16 16 17 16
16 15 14 14 12 12 13 12 10 10 11 11 11 11 10 9 8 8 9 8 8 9 11 11 12 12 13 13 13 13 14 14 14 15 14 14 14 15 16 16 16 16 16 16 16 17 17 17 17
14 14 15 12 10 12 12 11 11 10 11 11 10 9 10 9 8 9 9 9 9 10 12 13 13 13 13 13 14 14 14 15 15 15 14 15 15 15 16 16 16 16 17 17 17 17 17 17 17
13 14 14 12 11 12 13 13 11 11 10 9 10 10 9 9 10 10 10 10 10 12 12 13 13 13 13 13 13 14 15 15 15 15 15 15 15 16 16 16 17 17 18 17 17 17 18 18 17
13 14 14 14 12 13 14 15 14 12 10 10 9 9 8 8 10 10 11 10 11 12 13 13 13 13 13 13 13 15 15 16 16 16 16 16 15 16 16 17 17 17 17 18 18 18 18 18 18
15 12 13 13 15 16 14 18 15 13 12 11 10 10 9 10 11 11 11 11 12 12 12 12 13 13 13 13 13 14 15 15 14 14 15 16 16 16 16 17 17 18 18 18 18 17 18 18 19
14 13 13 15 16 17 16 17 17 14 15 13 11 10 10 10 11 12 11 11 11 12 13 13 13 13 13 13 13 14 15 15 17 17 16 16 16 16 17 17 18 18 18 18 18 18 18 18 19
13 15 16 16 17 20 17 16 18 16 14 14 11 10 10 10 11 11 11 11 12 13 13 13 14 13 13 13 13 14 15 17 18 17 17 17 17 17 17 17 18 18 18 18 18 18 19 19 19
15 16 20 21 22 20 16 18 16 14 14 13 12 11 10 12 12 13 13 13 13 14 14 13 14 14 13 13 14 14 15 16 17 17 16 17 18 18 18 18 19 19 19 19 19 19 19 19 19
16 14 19 23 22 19 19 21 18 13 11 12 12 11 12 12 12 12 12 12 12 12 13 13 14 13 14 14 14 14 15 15 16 17 16 16 17 17 18 18 19 19 19 19 19 20 20 19 19
16 17 14 17 24 22 17 17 15 14 13 13 13 14 13 13 12 13 13 13 13 13 13 13 14 13 14 14 14 14 15 15 16 17 17 16 17 18 18 19 19 20 19 19 20 20 20 19 19
15 14 18 18 23 25 18 18 16 15 13 12 14 13 13 13 12 12 12 12 13 13 13 13 13 13 14 14 14 14 15 15 15 17 17 18 18 18 19 19 20 20 20 20 20 20 20 20 20
17 16 16 16 17 19 20 17 16 15 14 13 13 13 13 13 13 12 12 11 13 14 14 14 14 14 14 15 15 15 15 16 17 17 17 18 18 19 19 19 20 20 20 20 21 21 20 21 20
14 14 14 17 18 18 17 17 11 12 14 13 13 13 12 12 12 12 12 12 13 13 14 14 14 14 14 14 15 16 17 18 18 18 18 19 19 19 19 20 20 20 20 20 21 21 21 21 21

GFSSGP_con_lsi_024.txt.gz
Lid_Strength_Index
0 1 3 5 10 12 14 12 12 11 11 10 8 9 9 8 9 11 5 2 1 0 0 -0 -2 -1 -1 -1 -1 -1 -1 -1 -2 -2 -2 -1 -1 -1 -1 -1 -1 -1 -1 -1 -1 -2 -2 -1 -1
2 2 4 8 12 15 13 12 11 10 10 9 9 9 9 9 7 6 5 2 0 0 1 -0 -1 -1 -2 -2 -1 -2 -2 -1 -1 -2 -2 -1 -1 -1 -1 -2 -1 -1 -1 -1 -2 -1 -1 -1 -1
3 3 7 10 13 14 14 12 12 10 10 10 10 9 9 9 8 6 5 2 1 1 1 -0 -1 -1 -2 -1 -1 -1 -1 -1 -1 -1 -2 -2 -2 -2 -1 -1 -1 -1 -2 -2 -2 -1 -1 -1 -1
5 7 9 12 13 12 12 11 11 11 10 10 10 10 9 8 7 6 4 2 2 2 1 -1 -1 -2 -2 -1 -1 -1 -1 -1 -2 -2 -1 -1 -0 0 0 0 1 -0 0 0 1 1 1 1 1
7 9 12 14 14 13 11 11 10 11 11 10 10 11 10 8 7 6 4 4 4 3 2 0 -2 -2 -2 -2 -2 -2 -2 -2 -1 -0 0 1 1 1 1 1 1 1 1 1 2 2 2 2 2
9 10 14 15 14 11 12 10 10 11 11 11 11 11 10 9 7 6 5 5 4 4 3 2 -1 -2 -2 -1 -1 -1 -1 -0 1 1 1 2 2 2 2 2 2 2 2 2 2 2 2 2 2
10 11 13 14 12 12 11 10 11 10 11 10 10 11 11 10 8 7 6 6 5 5 5 4 3 1 -0 -1 -0 0 1 1 1 2 2 3 3 3 3 3 3 2 3 3 3 3 4 3 4
9 11 14 14 13 12 11 10 11 10 10 10 8 11 10 10 9 8 8 8 7 7 6 6 6 5 4 3 1 1 1 2 2 3 4 4 5 5 5 5 4 3 4 4 4 4 5 5 5
9 14 15 13 12 12 11 11 10 10 11 10 8 10 10 9 9 10 11 9 9 8 7 8 7 7 7 6 4 3 3 3 4 4 4 7 10 9 8 5 5 5 5 5 5 6 6 7 7
10 14 13 11 11 12 11 11 11 12 11 11 10 10 9 9 10 10 11 10 10 9 9 8 9 9 8 6 7 8 7 9 9 9 9 11 11 11 9 7 7 7 7 7 7 8 9 10 12
10 12 10 9 10 10 11 11 10 11 11 10 10 10 10 11 10 10 10 10 9 9 9 9 9 9 9 9 10 11 10 11 10 11 11 11 11 11 12 12 13 13 11 13 12 13 13 13 13
11 9 9 8 9 10 11 10 11 11 8 9 9 9 10 11 10 10 11 11 11 12 10 9 10 9 10 11 10 11 11 12 12 12 11 12 13 13 13 13 14 14 14 15 14 14 14 14 13
10 10 9 8 9 9 10 10 11 11 9 9 9 10 10 10 10 9 9 10 11 12 11 11 11 10 10 11 11 11 12 11 12 12 12 12 13 14 14 14 14 15 15 15 15 15 15 14 14
10 10 9 9 9 9 10 11 10 8 10 9 9 10 10 9 9 10 11 10 11 11 11 11 11 10 11 11 11 11 11 11 12 13 13 13 13 14 14 15 15 15 15 15 15 15 15 15 15
10 11 11 10 10 10 10 12 12 8 10 9 9 10 10 9 9 10 9 9 10 10 11 11 11 11 11 11 11 12 11 11 12 13 13 13 13 14 14 15 15 15 15 15 15 16 16 16 15
12 13 14 12 11 10 10 13 10 9 10 10 10 10 10 9 9 8 8 9 9 10 11 11 10 11 11 11 12 12 12 12 12 13 13 13 14 14 15 15 15 15 16 16 16 16 17 17 16
15 16 15 13 11 11 12 13 10 10 11 11 10 11 10 9 10 9 8 9 9 9 10 11 11 11 11 12 12 13 13 12 12 14 14 14 14 14 15 16 16 16 16 16 16 17 17 17 17
17 17 15 15 13 13 13 13 10 10 11 12 11 11 11 10 8 8 9 9 9 9 10 10 11 11 11 12 14 14 14 14 13 14 14 15 15 15 16 16 16 16 16 17 17 17 17 17 18
16 16 16 14 12 13 13 12 11 10 11 12 11 10 10 11 8 8 9 9 9 10 10 11 12 12 12 13 14 14 14 14 15 15 14 15 15 15 16 16 16 17 17 17 17 17 18 18 18
14 15 15 13 12 14 13 13 12 11 10 10 10 10 10 9 8 8 10 10 10 10 10 11 12 13 13 12 12 13 13 15 14 14 15 14 15 15 16 16 17 17 18 18 18 18 18 18 18
15 16 15 15 14 15 16 16 15 13 11 10 9 9 9 9 9 8 11 11 10 10 11 12 12 12 12 12 13 16 16 16 16 16 15 15 15 15 16 17 17 18 18 18 18 18 18 19 19
16 13 14 15 17 18 16 19 17 15 14 12 11 10 10 9 9 8 12 12 11 10 11 11 12 12 12 13 14 14 14 15 14 14 15 16 16 16 16 17 17 18 18 18 18 18 19 19 19
14 14 15 16 18 19 18 19 17 15 15 14 12 11 10 9 10 10 11 11 11 11 12 12 12 13 13 13 13 14 14 14 16 16 17 16 16 16 17 17 18 18 18 18 18 19 19 19 19
14 15 16 17 18 19 17 18 19 17 15 14 12 11 11 10 9 12 12 12 13 13 12 12 13 13 13 14 14 14 14 16 17 17 16 17 17 17 17 17 18 18 18 18 19 19 19 19 19
15 16 20 21 22 20 17 19 15 15 14 13 13 12 11 11 10 14 13 13 13 14 13 13 14 14 14 14 14 13 14 15 15 16 16 17 17 17 17 18 18 18 19 18 19 19 19 19 19
16 15 20 24 21 18 19 20 17 13 12 12 12 11 11 13 13 13 13 13 14 14 14 14 14 14 14 14 13 13 13 14 15 16 15 16 16 16 17 17 18 19 19 19 19 19 19 19 19
17 18 14 19 27 24 18 16 13 14 13 13 13 13 14 14 13 13 13 14 14 13 13 13 14 13 14 14 13 14 14 14 15 16 16 16 16 17 18 17 18 19 19 19 20 20 20 19 19
15 14 18 19 23 25 19 19 16 14 13 13 13 13 13 13 13 13 13 14 14 14 14 13 13 13 13 14 14 14 14 14 15 16 17 17 17 17 18 18 19 19 19 19 20 20 19 20 20
17 17 17 16 17 18 19 17 11 12 13 14 13 13 13 13 13 12 12 13 14 14 14 14 13 13 14 14 14 14 15 15 15 17 17 17 18 18 18 18 19 19 20 20 20 20 20 21 20
15 15 14 17 17 16 16 16 10 10 11 11 11 12 13 13 12 12 12 12 13 13 14 14 13 13 13 14 15 15 16 16 16 17 17 18 18 18 18 19 19 20 20 20 21 21 20 21 21

GFSSGP_con_lsi_027.txt.gz
Lid_Strength_Index
1 3 3 5 11 12 14 13 12 12 12 11 9 9 9 9 9 11 5 2 1 1 0 -0 -1 -1 -2 -1 -1 -1 -1 -1 -1 -1 -1 -1 -1 -1 -1 -1 -1 -1 -1 -1 -2 -2 -1 -1 -1
3 3 5 9 13 16 14 12 12 11 11 10 10 10 10 10 7 6 4 2 1 1 1 1 -1 -1 -1 -1 -1 -1 -1 -1 -1 -1 -1 -1 -1 -1 -1 -1 -1 -1 -1 -1 -1 -1 -1 -1 -1
4 4 7 11 14 15 14 13 12 11 11 11 11 10 10 9 8 6 4 1 1 2 1 1 -1 -2 -2 -1 -2 -2 -2 -1 -1 -1 -1 -1 -1 -2 -2 -1 -1 -1 -1 -2 -1 -0 0 0 0
6 8 10 12 14 12 12 11 11 11 11 10 11 10 9 8 7 6 5 2 2 2 2 -0 -1 -1 -1 -2 -1 -1 -1 -1 -1 -1 -2 -2 -2 -1 -0 0 -0 -1 0 0 1 1 1 1 1
8 9 13 15 14 13 12 11 11 11 12 11 10 11 10 9 8 6 3 2 3 3 2 1 -1 -2 -1 -1 -1 -1 -1 -2 -2 -2 -1 -1 -0 -0 0 0 0 1 1 1 1 2 2 2 2
10 11 14 15 14 12 11 11 11 12 12 12 11 11 10 9 8 6 4 4 3 3 2 1 -0 -1 -1 -1 -1 -1 -1 -2 -1 -1 -0 0 0 1 1 1 1 1 1 2 2 2 2 2 3
10 12 14 15 13 12 11 11 11 11 12 11 11 11 10 10 8 6 6 6 5 4 4 3 2 0 -1 -1 -1 -2 -2 -1 -0 0 1 1 1 1 2 2 2 2 2 2 3 3 3 3 3
10 12 14 14 14 12 11 11 11 11 10 10 9 11 11 10 8 7 7 7 6 6 5 5 4 3 2 2 -0 -1 -1 -0 1 1 2 2 3 3 3 2 2 2 2 3 4 4 5 5 5
10 14 15 14 14 12 11 12 11 11 11 11 9 10 10 9 9 9 9 8 8 6 6 6 6 5 5 5 3 1 1 1 1 2 3 5 9 8 7 4 4 4 4 4 5 6 7 8 7
11 15 14 12 11 12 11 11 11 10 12 11 10 11 10 10 9 9 10 8 9 8 7 7 7 7 7 5 6 6 6 6 7 8 9 10 11 10 8 6 5 6 6 6 6 8 9 11 13
11 12 11 10 10 10 11 12 10 12 11 11 10 10 10 11 10 9 9 8 8 7 8 7 7 8 8 7 8 9 9 10 10 10 11 12 11 10 11 11 12 13 11 13 13 13 14 14 14
12 10 10 9 9 10 11 10 11 11 8 9 9 10 10 11 10 9 9 9 9 9 8 8 8 9 9 9 9 10 10 11 11 12 11 12 12 13 14 14 14 14 15 15 15 15 14 15 14
11 10 9 9 9 9 10 10 11 11 9 9 9 10 10 10 9 9 9 9 10 9 9 9 9 9 9 10 10 11 11 11 11 12 11 12 13 14 14 14 15 15 15 15 16 15 15 15 15
11 10 10 10 10 10 10 10 11 8 9 9 10 10 10 10 9 10 10 10 11 10 10 9 9 9 10 10 10 10 11 11 12 12 12 12 13 14 14 15 15 16 15 16 16 16 16 16 15
11 12 12 11 10 10 10 12 12 8 10 10 10 10 10 10 10 10 9 9 9 10 10 10 10 10 10 10 11 11 11 11 12 12 12 12 13 14 15 15 15 16 16 16 16 16 16 16 16
14 14 15 13 12 11 11 14 11 10 10 10 10 11 11 10 10 9 8 9 9 10 11 11 9 10 10 10 11 11 11 11 12 13 13 13 13 14 15 15 16 16 16 16 17 17 17 17 17
17 18 17 15 11 12 13 14 11 11 11 11 11 11 11 10 10 10 8 8 9 9 10 11 10 11 11 11 11 11 12 12 12 14 14 14 13 14 15 15 16 16 16 17 16 17 18 18 18
18 19 17 17 14 14 15 14 11 10 12 11 11 11 11 10 9 8 9 9 9 9 10 11 11 11 11 11 12 13 13 13 14 13 14 14 14 14 15 16 16 16 17 17 17 18 18 18 18
17 18 18 15 14 15 15 14 13 11 11 13 12 11 10 9 8 8 9 10 10 10 10 11 11 11 11 12 13 13 13 14 14 14 14 14 14 15 16 16 17 17 17 17 18 18 18 19 19
15 16 16 14 13 16 15 15 13 13 12 11 10 10 10 9 9 9 10 11 10 10 10 10 11 11 11 11 11 12 12 14 13 14 14 14 15 15 16 16 17 17 18 18 18 18 19 18 19
17 17 16 16 15 16 17 16 15 13 12 11 10 10 10 10 9 9 10 12 11 10 10 11 11 11 11 11 12 15 15 17 17 16 15 15 15 16 16 16 17 17 18 18 19 18 19 19 19
16 14 15 15 17 19 17 20 17 15 15 14 12 11 11 11 10 10 9 12 12 11 10 10 11 11 11 11 12 13 13 14 14 14 14 15 15 16 16 16 17 17 18 19 19 18 19 19 20
15 15 15 17 18 19 19 20 17 15 16 14 12 11 11 11 11 10 9 11 12 11 11 11 12 12 11 12 12 12 13 13 15 16 17 16 16 16 16 16 17 18 18 18 18 19 19 19 19
14 16 16 18 18 21 17 18 18 17 15 15 13 12 11 11 11 11 11 13 13 13 13 13 13 13 12 12 12 13 13 15 16 16 16 16 16 16 17 17 17 18 18 18 18 19 19 19 19
15 17 21 22 22 20 18 19 16 15 14 13 13 12 11 12 12 11 13 13 13 14 14 14 14 14 13 13 13 13 13 14 14 15 15 16 16 16 17 17 18 18 18 18 18 19 19 19 19
16 16 20 24 20 18 19 20 15 14 13 13 13 13 12 12 12 12 12 12 13 14 14 14 14 14 14 14 14 14 13 14 14 15 14 15 15 15 16 17 17 18 18 19 19 19 19 19 19
17 18 15 19 26 23 17 17 13 14 14 14 13 13 13 13 13 13 13 13 14 14 14 14 14 14 14 14 14 14 13 13 14 15 15 15 15 16 17 17 17 18 18 19 19 19 19 19 19
15 15 18 19 23 24 19 19 18 15 13 12 13 12 13 13 13 13 13 13 13 14 15 14 14 14 14 14 13 13 13 13 14 16 16 16 16 16 17 17 17 18 18 19 19 20 20 20 20
16 16 16 16 16 18 20 17 12 13 12 13 13 13 13 12 12 12 12 12 13 14 15 15 15 14 14 14 13 13 13 14 14 15 16 16 16 17 17 17 18 18 19 19 19 20 20 20 20
14 14 14 15 17 16 16 16 9 10 9 10 10 9 10 11 11 12 12 12 12 13 14 15 15 14 13 13 14 14 14 14 14 15 16 16 17 17 17 18 18 18 18 19 19 20 20 21 21

GFSSGP_con_lsi_030.txt.gz
Lid_Strength_Index
2 3 4 6 12 12 15 13 12 12 12 10 10 10 9 9 9 12 5 2 1 1 0 0 -1 -2 -1 -2 -1 -1 -1 -1 -1 -1 -1 -1 -1 -1 -1 -1 -1 -1 -1 -2 -2 -2 -1 -1 -1
4 4 6 9 13 17 16 12 12 11 11 10 10 10 10 10 8 6 5 2 1 0 1 1 -1 -1 -1 -2 -1 -1 -1 -1 -1 -1 -1 -1 -1 -1 -1 -1 -1 -1 -1 -1 -2 -1 -2 -1 -1
4 5 8 12 15 17 15 13 13 12 11 11 10 9 9 10 8 7 4 2 2 1 1 1 -1 -1 -2 -2 -1 -1 -2 -1 -2 -2 -1 -1 -1 -1 -1 -1 -1 -2 -2 -2 -1 -0 0 0 0
6 8 10 12 14 13 13 12 13 12 10 11 9 10 9 8 7 6 4 2 2 3 2 0 -1 -1 -2 -2 -2 -2 -2 -1 -2 -1 -1 -2 -2 -2 -1 -1 -2 -1 -1 -0 0 1 1 1 1
8 10 14 15 15 13 12 11 12 12 12 12 11 11 11 9 7 6 3 2 2 3 3 1 -1 -1 -2 -2 -2 -2 -2 -2 -2 -1 -2 -2 -2 -1 -0 -0 -0 -0 0 1 1 1 1 1 1
10 11 14 16 15 13 11 11 12 12 12 12 11 11 10 10 8 6 3 3 3 3 3 1 0 -1 -1 -2 -2 -2 -1 -1 -1 -2 -2 -1 -1 -0 0 0 0 0 1 1 1 1 2 2 2
11 12 15 16 14 13 11 12 12 12 12 11 10 11 10 10 8 6 5 5 4 3 3 2 1 1 -1 -1 -1 -1 -2 -1 -2 -2 -1 -0 0 0 1 1 1 1 1 1 2 2 3 3 3
10 12 15 15 15 13 12 12 12 11 11 11 10 11 11 10 8 6 6 6 5 5 4 3 3 2 2 1 -0 -1 -1 -2 -2 -1 -0 0 0 1 1 1 1 1 2 3 3 4 4 4 5
11 14 16 14 14 12 12 12 11 11 10 10 10 10 10 10 8 7 8 8 7 6 5 4 4 4 4 4 2 0 -0 -1 -0 1 1 3 7 6 6 4 2 2 3 4 4 5 6 7 7
11 15 14 13 13 12 12 12 10 10 10 11 10 10 10 9 8 8 8 7 8 7 6 6 5 5 5 4 4 4 4 4 5 6 7 9 9 9 8 5 3 3 4 5 6 7 8 11 14
12 13 12 11 11 11 11 12 11 12 12 10 10 10 10 10 9 8 8 7 6 6 6 6 6 6 6 6 6 7 7 8 8 9 10 11 11 10 10 10 11 12 10 12 12 14 14 14 14
12 10 10 10 10 11 11 11 11 11 8 8 9 10 10 10 10 8 8 8 8 8 7 7 7 7 7 7 7 8 8 9 10 10 11 12 12 12 12 13 14 15 15 15 15 15 15 15 15
12 11 10 10 10 10 10 10 11 12 9 9 10 10 10 10 10 9 8 8 8 8 7 7 7 7 7 8 8 9 9 9 11 11 12 12 12 13 14 15 15 15 15 15 16 16 16 16 15
13 12 11 11 10 10 10 10 12 10 10 9 10 10 10 11 10 10 10 9 9 8 8 7 7 7 7 7 8 8 9 10 11 12 12 12 12 13 14 14 15 16 16 16 16 16 16 16 16
12 13 13 13 12 11 11 12 13 9 11 10 10 11 11 11 11 10 9 9 9 9 8 8 8 7 8 8 8 9 9 10 11 12 12 13 13 14 14 14 15 16 16 16 16 16 17 17 16
16 15 17 15 13 13 12 15 11 11 12 11 11 11 12 11 10 10 9 9 9 9 10 9 8 8 8 8 9 9 10 10 11 12 12 12 13 14 15 15 15 16 16 16 17 17 17 18 18
18 19 18 16 13 14 14 16 12 12 13 12 11 11 11 10 11 10 9 9 9 9 10 11 9 9 9 9 10 10 11 11 11 12 12 12 13 14 15 15 15 16 16 17 17 18 18 18 18
18 19 18 18 15 16 16 16 13 11 14 12 11 11 11 10 9 7 10 9 9 9 9 10 11 10 10 9 11 12 12 11 12 12 13 13 13 15 15 16 15 16 17 17 17 18 18 18 18
18 18 19 16 14 16 15 15 14 12 12 12 12 11 11 10 9 8 10 10 10 10 10 11 11 11 11 11 12 12 12 12 13 12 13 14 14 15 15 16 16 17 17 17 18 18 18 19 19
16 17 17 15 14 16 16 16 14 13 12 11 11 11 10 11 10 10 10 11 11 10 10 11 11 11 11 10 11 11 11 12 12 12 13 14 14 15 15 16 16 17 18 18 18 18 19 18 19
17 18 16 17 16 16 17 18 16 14 13 12 11 10 10 10 10 10 11 12 13 12 12 11 11 11 11 11 11 15 15 16 15 15 14 14 14 15 15 16 16 17 17 18 18 18 18 19 20
17 15 16 16 18 20 17 21 18 14 14 14 12 12 12 12 11 11 11 12 13 12 12 11 11 11 12 11 12 12 12 13 13 13 13 14 14 15 16 16 16 17 17 18 18 18 19 19 20
16 15 16 17 19 20 20 21 18 17 17 15 13 13 13 12 12 12 11 11 11 12 12 12 12 12 12 12 12 13 12 12 13 13 14 14 15 15 16 16 17 17 17 18 18 19 19 19 19
15 16 17 19 19 21 18 19 19 18 16 15 14 13 12 12 12 12 12 12 12 13 13 13 13 13 13 13 12 13 13 13 15 15 15 15 15 16 16 16 16 17 17 18 18 18 19 19 19
16 18 21 22 23 21 19 20 16 15 14 14 12 12 13 12 12 12 12 12 12 13 13 14 14 14 13 13 13 13 13 14 14 14 14 15 16 16 16 16 17 17 17 18 18 18 18 19 19
17 17 20 25 23 19 20 20 16 14 14 13 14 14 13 12 13 13 12 12 12 13 13 14 14 14 14 14 14 14 13 14 14 15 14 15 15 15 15 16 16 17 17 17 18 18 18 18 18
18 18 16 18 24 24 18 17 13 14 14 15 14 14 13 13 12 12 12 12 12 13 13 14 14 14 14 14 14 14 14 14 14 15 15 15 15 15 15 16 16 17 17 18 18 18 18 18 18
16 15 19 19 21 24 19 19 17 15 14 13 13 13 13 12 10 8 11 11 12 12 14 14 14 14 14 15 14 14 14 14 14 15 15 15 14 15 16 16 16 17 18 18 18 18 18 19 19
17 16 16 16 16 19 20 17 13 14 14 14 11 10 11 11 10 11 12 12 12 13 14 14 15 15 15 15 14 14 14 14 15 15 15 14 15 15 16 16 16 17 18 18 18 18 19 19 20
13 12 12 15 18 16 16 16 11 10 10 10 10 8 9 11 13 13 13 13 12 12 12 14 14 14 14 14 15 15 14 15 15 14 14 14 15 15 15 15 16 16 17 18 18 19 19 19 20

GFSSGP_con_lsi_033.txt.gz
Lid_Strength_Index
2 3 3 5 10 11 12 11 9 10 9 8 8 8 8 7 7 9 3 0 0 -0 -1 -1 -1 -1 -2 -2 -2 -2 -1 -2 -1 -1 -1 -1 -1 -1 -1 -1 -1 -1 -1 -2 -2 -2 -2 -1 -2
3 3 5 8 11 14 14 11 10 9 8 8 8 8 8 8 6 5 3 1 -0 -0 -1 -1 -1 -1 -1 -1 -2 -2 -2 -2 -1 -1 -1 -2 -1 -1 -1 -1 -1 -1 -1 -1 -2 -2 -2 -2 -1
3 5 6 10 13 14 14 11 10 9 9 8 8 7 7 7 6 4 2 0 -0 -0 -1 -1 -1 -1 -1 -1 -1 -1 -2 -2 -1 -2 -1 -1 -1 -1 -1 -1 -1 -1 -2 -2 -1 -0 -0 0 -0
5 7 9 11 12 11 11 9 10 9 9 9 8 9 8 6 5 4 2 1 0 -0 -1 -1 -1 -1 -2 -1 -1 -2 -2 -2 -2 -2 -1 -1 -1 -1 -1 -1 -2 -2 -1 -1 0 1 1 1 1
7 9 12 13 13 11 10 9 9 9 9 9 8 9 8 6 6 5 2 0 1 1 1 -0 -1 -1 -1 -1 -2 -2 -2 -2 -2 -2 -1 -1 -1 -2 -1 -2 -1 -1 -0 0 0 0 1 1 1
9 10 13 14 13 12 11 9 9 9 9 9 9 9 8 7 6 5 2 1 1 1 2 1 0 -0 -1 -1 -2 -2 -2 -2 -2 -2 -2 -2 -2 -1 -1 -1 -0 -0 0 0 0 1 1 2 2
10 11 13 13 13 12 10 10 10 9 9 9 8 8 7 7 6 4 2 2 1 2 2 1 0 -0 0 -1 -1 -2 -2 -2 -2 -1 -2 -2 -1 -0 -0 -0 0 0 0 1 1 2 2 2 3
9 10 12 13 13 12 10 10 9 9 9 8 8 9 8 7 6 4 3 3 2 2 1 1 0 0 0 -0 -0 -1 -1 -1 -1 -2 -2 -1 -1 -0 -0 0 0 1 1 2 2 2 3 4 4
9 12 14 13 13 11 10 10 9 9 9 9 8 8 8 8 6 5 4 4 4 3 2 2 1 1 1 0 0 0 -0 -1 -0 -1 -0 1 2 2 2 2 0 1 2 3 3 4 5 6 6
10 13 13 11 12 11 10 10 9 9 9 9 9 8 8 8 7 6 5 4 4 4 3 3 2 2 2 1 0 0 2 0 1 1 2 4 4 4 4 3 1 2 3 4 4 6 8 10 11
11 12 12 11 11 10 10 11 9 10 10 9 9 8 9 9 8 6 5 4 4 3 3 4 3 3 3 2 2 2 2 2 3 3 5 5 6 5 5 5 6 6 7 8 8 11 11 11 11
12 11 11 10 10 10 10 10 10 10 7 7 8 7 9 9 8 7 6 5 5 5 4 4 4 3 3 3 3 3 3 4 4 5 6 7 7 7 7 7 8 8 9 11 11 11 11 12 12
12 11 11 10 11 10 10 10 10 11 8 8 9 9 9 9 9 8 6 5 6 6 5 4 4 3 3 4 3 4 4 4 5 6 7 8 8 8 8 9 10 11 11 11 12 12 12 12 12
12 12 11 11 11 11 11 10 11 10 8 9 9 9 10 10 8 9 9 7 7 6 5 5 5 4 4 4 4 4 4 5 6 7 8 9 9 9 9 11 12 12 11 12 12 13 13 13 13
12 13 13 13 12 12 12 13 13 9 10 10 10 10 10 10 10 9 8 8 7 6 6 6 5 5 5 4 5 4 5 6 7 7 8 9 9 10 10 11 12 12 12 12 12 13 13 13 14
14 15 16 14 13 13 12 15 12 12 12 11 11 11 11 10 10 9 8 8 7 7 7 6 6 6 5 5 5 5 6 6 7 8 8 9 10 10 11 11 12 13 13 12 12 13 14 14 14
16 18 18 16 13 13 13 15 12 12 13 12 11 11 10 10 9 9 9 8 8 8 8 8 7 6 6 5 5 6 6 7 7 8 9 9 10 11 11 11 12 13 14 14 13 14 13 14 14
18 19 18 17 14 15 15 15 13 12 13 12 11 11 10 10 9 8 9 9 9 9 8 8 8 7 7 6 7 7 8 8 8 9 9 10 10 11 11 12 13 14 14 14 14 14 14 14 14
17 18 18 16 14 16 15 15 14 12 13 12 11 11 11 11 9 9 9 9 10 10 10 10 10 9 8 8 9 10 10 9 9 9 9 10 10 11 11 12 13 14 14 14 14 14 15 15 15
16 17 17 15 14 16 16 16 14 13 12 12 11 11 11 11 10 10 10 10 10 10 10 10 10 10 9 8 8 8 9 9 9 10 10 10 10 11 11 12 13 14 14 15 15 15 16 15 16
17 18 17 17 16 16 17 17 16 14 13 12 11 11 11 11 11 10 10 10 10 11 10 10 10 11 10 9 9 12 11 12 11 11 11 11 11 11 11 12 13 14 14 15 15 15 15 15 16
18 15 16 17 18 20 17 21 16 13 13 12 13 13 12 12 11 11 11 11 10 10 10 10 10 11 11 10 11 11 11 12 11 11 11 12 12 12 12 12 13 13 14 14 15 15 14 15 16
16 16 16 17 18 19 19 20 18 16 15 14 13 12 12 11 12 11 11 11 11 11 10 11 11 11 11 11 10 11 11 11 12 11 12 12 13 12 12 13 13 14 14 14 15 15 16 15 15
15 17 17 19 19 22 19 19 19 17 15 14 13 12 12 12 12 12 12 12 11 11 12 11 12 11 11 11 11 11 11 11 13 13 13 13 13 13 13 13 13 14 14 15 15 15 15 15 15
16 18 21 21 22 20 19 20 16 15 13 14 13 12 12 12 13 12 11 11 11 11 12 12 12 12 12 12 12 11 11 11 13 13 13 14 14 14 14 14 14 14 15 15 15 15 15 15 15
16 16 18 23 23 18 20 20 17 14 13 13 13 13 12 11 12 12 12 12 12 12 12 12 12 13 13 13 12 12 12 12 12 13 13 13 13 13 13 14 14 14 15 15 15 15 15 15 15
17 17 15 18 25 22 17 15 13 14 14 13 13 12 12 12 13 13 13 13 12 12 12 12 13 13 13 13 13 13 12 12 12 13 13 13 13 13 13 14 14 14 15 15 15 15 15 15 15
15 14 18 18 21 21 18 17 17 15 13 13 13 15 14 13 14 13 13 13 13 13 12 12 12 13 13 13 13 13 13 12 12 14 14 14 13 14 14 14 14 15 15 15 15 15 15 16 16
14 15 15 15 16 20 21 18 14 14 14 15 14 14 15 15 15 14 13 13 13 13 12 13 13 13 13 13 13 13 13 13 13 14 14 14 14 14 15 15 15 15 15 14 15 15 16 17 17
12 13 13 15 17 15 16 16 11 11 12 13 14 15 14 14 14 14 13 13 12 12 12 13 13 13 13 13 13 13 13 14 14 14 14 14 15 15 15 15 15 15 14 14 15 16 17 17 17

GFSSGP_con_lsi_036.txt.gz
Lid_Strength_Index
0 -0 -1 1 7 7 9 9 7 7 7 6 5 5 6 5 6 8 1 -0 -0 -0 -1 -1 -1 -1 -2 -2 -1 -1 -1 -1 -1 -1 -1 -1 -1 -1 -1 -1 -1 -1 -1 -1 -1 -1 -1 -1 -1
1 1 0 3 9 11 10 8 8 6 6 6 6 6 6 6 4 3 2 -0 -1 -1 -1 -1 -1 -1 -1 -1 -1 -1 -1 -2 -1 -1 -1 -1 -1 -1 -1 -1 -1 -1 -1 -1 -1 -1 -1 -1 -1
2 2 4 6 8 10 10 8 7 7 6 6 6 5 5 5 4 2 0 -0 -1 -1 -1 -1 -1 -1 -1 -1 -1 -1 -1 -2 -2 -1 -1 -1 -1 -1 -1 -1 -1 -1 -1 -1 -1 -1 -0 -0 -0
2 2 4 8 10 8 8 7 6 6 6 6 5 6 4 3 3 2 -0 -0 -0 -1 -1 -1 -1 -1 -1 -1 -1 -1 -2 -1 -2 -1 -1 -1 -1 -1 -1 -1 -1 -1 -1 -1 -0 0 0 1 1
2 4 8 9 10 8 7 7 7 7 7 6 6 6 6 4 3 2 0 -0 0 -0 -1 -1 -1 -1 -1 -1 -1 -1 -1 -2 -2 -2 -1 -1 -1 -1 -1 -1 -1 -1 -1 -0 -0 -0 0 1 1
5 5 9 10 9 8 7 6 7 7 6 6 6 6 5 4 4 2 -0 -0 -0 -0 -1 -1 0 -0 -1 -1 -1 -1 -1 -2 -2 -2 -2 -1 -1 -1 -1 -2 -1 -0 0 -0 -0 1 1 1 2
7 7 9 9 9 8 7 6 7 6 6 6 5 6 5 4 3 2 -0 -0 -0 -1 -1 -1 -1 -1 1 0 -0 -1 -2 -2 -2 -2 -2 -1 -2 -2 -1 -1 -1 -0 -0 -0 1 1 2 2 3
4 6 9 8 9 9 6 7 6 6 6 5 5 6 6 4 4 1 0 0 -0 -0 -0 -1 -1 -1 -1 -1 1 -0 -1 -1 -1 -1 -1 -1 -1 -1 -1 -1 -1 -0 0 1 1 2 3 3 4
6 8 9 9 9 8 6 7 6 6 6 6 5 5 4 4 3 2 1 1 1 0 -0 -1 -1 -1 -1 -1 -0 1 -0 -1 -0 -1 0 0 -1 -0 0 0 -0 0 1 2 2 3 4 5 6
6 8 9 7 7 8 7 7 6 7 6 5 5 4 5 5 4 3 2 2 2 1 1 -0 -0 -1 -1 -1 -1 -1 -1 -1 -1 -1 -1 -1 -0 0 1 2 0 1 2 3 3 5 7 9 8
7 9 7 8 8 8 8 8 7 7 7 5 5 5 4 5 4 4 3 2 2 1 1 0 -0 -1 -1 -1 -1 -1 -1 -1 -1 -1 -1 -0 1 1 2 2 1 2 3 4 5 7 8 8 8
9 8 8 7 8 8 8 7 8 8 6 4 4 4 4 5 5 4 3 2 1 1 1 0 -0 -0 -1 -1 -1 -1 -1 -1 -1 -1 -1 1 1 2 2 2 2 3 4 5 7 8 8 9 9
9 8 8 7 8 8 8 8 8 8 5 5 5 5 6 5 4 4 3 3 2 2 1 0 -0 -0 -0 -0 -1 -1 -1 -1 -1 -1 0 1 2 3 3 3 3 4 5 6 8 8 9 9 10
9 9 9 8 8 8 9 9 9 8 6 7 6 6 5 5 5 4 4 4 4 3 2 1 1 0 -0 -0 -0 -0 -1 -1 -1 -0 1 2 2 3 4 4 5 5 6 8 8 9 9 9 10
9 10 9 9 9 9 9 10 10 7 7 8 7 6 6 6 5 5 4 4 4 3 3 2 2 1 1 0 -0 -0 -0 -0 -0 1 1 2 3 4 5 5 5 7 8 9 9 10 9 10 10
11 11 12 10 10 10 9 12 9 7 9 8 8 7 7 7 6 6 5 5 4 4 4 3 3 2 1 1 0 0 0 1 1 1 2 3 4 5 5 6 7 8 9 9 9 10 11 10 10
11 13 13 12 10 11 10 12 9 8 9 9 8 8 7 7 6 6 6 6 5 5 5 4 4 3 2 2 1 1 1 2 2 2 3 4 4 6 6 6 7 8 9 9 9 10 10 11 11
13 14 13 14 10 11 12 12 10 9 9 9 9 8 7 7 7 6 6 6 6 5 5 5 5 4 4 3 2 2 2 2 2 3 3 4 5 6 7 7 7 9 9 10 10 10 11 11 11
12 13 14 12 10 12 12 12 11 10 9 9 9 8 8 8 7 7 6 6 6 6 6 6 6 5 5 5 5 4 4 4 4 3 4 5 5 6 7 7 8 9 9 10 10 11 12 12 11
13 14 14 12 11 13 12 13 11 10 10 9 9 8 8 8 7 7 7 6 6 6 6 7 7 6 6 5 5 5 5 5 4 4 5 5 6 7 7 8 8 9 9 10 10 11 12 11 12
13 14 13 14 12 12 14 13 12 10 10 9 9 9 9 9 8 8 7 7 6 7 7 7 7 7 7 6 6 6 6 7 6 6 6 6 6 7 8 8 8 9 9 10 10 11 11 12 12
14 11 13 14 15 16 13 17 12 10 10 10 9 9 9 9 8 8 8 8 8 8 7 7 7 8 8 7 7 7 8 8 8 7 7 7 7 8 8 8 9 9 10 10 10 10 10 10 12
13 13 13 14 15 15 15 16 12 12 12 10 10 9 9 9 9 9 9 9 9 8 9 8 8 8 8 8 8 8 8 7 7 7 8 8 9 8 9 9 9 9 10 10 10 10 10 10 10
12 13 13 14 15 17 14 15 14 12 12 10 10 10 10 10 11 11 11 10 11 10 10 10 10 10 9 8 8 8 8 8 8 8 9 9 9 9 9 9 9 9 10 10 10 10 10 11 10
13 14 16 17 17 17 15 16 14 11 11 12 12 12 11 11 11 12 12 12 12 12 11 11 11 11 11 10 9 9 9 8 9 8 9 9 10 10 10 10 10 10 10 10 10 11 11 11 11
13 13 17 22 19 17 14 16 13 10 11 12 11 11 11 12 12 12 12 12 12 12 12 12 12 12 12 11 11 10 10 9 9 9 9 9 9 9 9 9 10 10 11 11 11 11 11 11 11
13 15 11 16 15 18 15 12 11 11 12 11 12 12 12 12 12 12 11 11 11 11 12 12 12 12 12 12 11 10 10 10 10 9 9 9 9 9 9 9 10 10 11 11 11 12 12 12 11
12 11 16 15 21 20 16 15 14 13 12 12 11 12 13 12 12 12 12 11 11 11 10 10 11 11 11 11 11 10 11 11 10 10 10 10 10 10 10 10 11 11 11 11 12 12 12 13 12
13 13 13 13 16 19 20 15 11 12 13 13 13 13 14 14 13 13 12 12 11 11 11 11 10 11 11 11 11 11 11 11 11 11 10 10 10 10 10 11 11 11 11 12 12 12 12 13 13
9 11 11 16 17 15 16 16 8 11 13 13 14 14 13 13 13 13 13 12 12 11 11 11 12 11 11 11 11 11 11 12 12 12 12 11 11 11 11 11 11 12 12 12 13 13 13 14 14

GFSSGP_con_lsi_042.txt.gz
Lid_Strength_Index
-1 -0 1 3 9 9 11 10 8 8 8 7 7 8 8 7 8 10 3 1 1 1 -0 -1 -1 -1 -1 -1 -1 -1 -1 -1 -1 -1 -1 -1 -1 -1 -1 -1 -1 -1 -1 -1 -1 -1 -1 -1 -1
1 1 2 5 10 12 12 9 8 7 7 7 7 7 8 8 5 4 3 1 0 0 -0 -0 -0 -1 -1 -1 -1 -1 -1 -2 -1 -1 -1 -1 -1 -1 -1 -1 -1 -1 -1 -1 -1 -1 -1 -1 -1
1 2 5 8 10 12 12 9 9 7 6 8 8 7 7 7 5 4 2 1 1 1 -0 -0 -0 -1 -1 -1 -1 -1 -1 -1 -2 -1 -1 -2 -1 -1 -1 -1 -1 -1 -1 -1 -1 -0 -0 -0 -0
2 4 5 10 10 10 10 9 7 7 7 7 7 8 6 4 4 3 1 1 1 1 0 -0 -1 -1 -1 -1 -1 -1 -1 -1 -2 -1 -1 -1 -2 -1 -1 -1 -1 -1 -1 -1 -1 -1 -0 0 1
3 5 9 11 10 10 9 8 8 8 8 7 7 9 8 5 3 2 2 1 1 1 1 -0 -0 -1 -1 -1 -1 -1 -1 -1 -1 -1 -1 -1 -2 -1 -1 -1 -1 -1 -1 -1 -1 -1 -0 0 1
6 7 10 12 10 9 8 7 7 8 7 7 9 8 7 4 4 3 2 2 1 1 0 -0 1 0 -0 -1 -1 -1 -1 -1 -1 -1 -2 -1 -2 -1 -1 -1 -1 -1 -1 -1 -1 -0 0 1 1
7 8 10 10 10 9 8 7 9 8 8 8 7 9 6 6 4 3 3 2 2 1 0 1 0 0 1 0 0 -0 -1 -1 -1 -1 -2 -2 -2 -1 -1 -2 -1 -1 -1 -1 -0 0 1 2 2
6 8 10 11 10 10 8 8 8 8 8 6 6 9 9 6 3 3 2 3 2 1 1 1 1 0 0 0 1 1 0 -0 -0 -0 -0 -0 -1 -1 -1 -1 -2 -1 -1 -1 -0 1 1 2 4
5 10 11 10 10 10 8 10 8 8 8 8 7 7 6 4 3 3 3 3 2 2 1 1 1 0 0 0 1 2 1 1 1 1 1 1 -0 0 1 -0 -1 -1 -1 -0 0 1 2 3 5
8 10 10 8 9 10 9 9 9 10 10 8 9 7 6 5 5 4 4 4 3 3 2 2 1 1 1 0 1 0 1 2 2 1 2 0 0 1 1 1 -0 -1 -1 0 1 2 3 5 9
7 10 8 8 8 8 9 9 9 10 11 9 9 8 8 7 6 5 5 4 3 3 2 2 2 1 1 1 1 1 1 2 2 1 2 1 0 2 2 3 2 3 3 4 4 5 8 9 10
10 8 8 7 7 9 9 8 9 10 9 7 8 7 7 8 8 6 6 5 5 3 2 2 2 2 2 1 2 1 1 1 2 2 2 2 0 3 3 3 3 3 4 5 7 9 9 10 10
9 8 7 7 8 9 8 9 10 9 8 7 7 7 8 8 8 7 6 5 5 4 3 2 2 2 2 2 2 2 2 2 2 1 1 2 1 3 3 4 3 3 5 5 7 9 9 10 10
8 8 9 8 8 9 10 10 10 9 8 8 8 8 8 8 8 8 7 7 6 5 4 2 2 2 2 2 2 2 2 2 2 2 2 1 1 3 3 4 4 4 5 6 8 9 10 10 10
8 11 10 9 9 10 9 12 11 9 9 9 9 9 9 8 7 8 7 7 7 6 5 4 2 2 2 2 2 2 2 2 2 2 1 1 0 3 4 4 5 5 6 7 9 10 10 10 10
11 12 14 11 10 11 11 14 10 10 10 10 9 9 8 8 7 8 8 7 7 8 6 5 4 3 2 2 2 2 2 2 2 2 2 2 2 3 4 5 5 5 7 9 10 11 11 11 12
13 16 14 12 9 11 12 14 10 9 9 10 9 9 9 9 9 8 7 7 7 7 7 6 5 5 3 2 2 2 2 2 2 2 2 2 2 3 4 6 6 6 8 10 10 11 11 12 12
15 14 13 13 11 10 12 12 11 10 10 10 10 10 10 10 9 8 8 8 8 8 7 8 6 5 5 5 4 4 3 3 3 3 3 2 2 3 4 6 7 7 9 10 11 11 11 12 12
13 14 14 12 10 11 12 12 11 9 10 10 10 11 10 10 9 9 9 9 9 9 9 8 8 7 7 6 6 6 5 4 4 4 3 3 4 4 5 7 8 8 10 10 11 12 12 12 12
13 14 15 13 10 12 13 13 11 10 10 11 11 11 11 11 11 11 11 11 11 11 10 10 9 9 8 8 7 7 7 6 6 5 4 4 4 5 6 7 8 9 10 11 11 12 13 13 13
14 15 14 15 13 13 14 15 13 11 11 11 11 11 12 12 12 13 13 12 12 12 11 11 10 10 9 9 8 8 8 8 8 8 7 6 5 6 7 8 9 10 10 11 11 12 12 13 13
15 13 14 14 16 19 15 20 15 12 13 13 13 13 13 13 13 12 13 13 13 13 12 12 11 11 10 10 10 10 10 10 9 9 8 7 6 6 7 7 9 10 11 12 12 11 11 13 14
14 13 14 15 17 17 16 19 16 13 15 14 13 13 13 12 12 13 13 12 13 13 13 13 13 12 11 11 11 11 11 10 10 9 9 9 8 7 7 8 9 10 10 12 12 13 13 12 14
12 14 14 14 16 20 15 16 16 15 14 14 13 12 12 12 12 12 12 12 13 13 13 13 13 13 12 12 11 12 12 12 12 11 11 10 10 9 9 9 9 9 10 11 12 12 13 12 12
13 15 18 19 20 19 14 16 14 13 12 12 12 12 13 13 13 13 13 13 13 13 13 13 13 13 13 13 13 12 13 13 13 13 12 13 12 11 10 10 10 10 10 11 12 13 13 13 13
13 13 18 22 21 19 15 18 14 12 11 11 12 12 12 13 13 13 13 13 14 13 13 13 13 14 14 13 13 13 13 13 13 13 13 13 12 12 11 11 11 11 10 11 12 13 13 13 13
13 14 11 16 17 19 16 14 12 11 12 12 13 13 14 14 13 13 13 13 13 13 13 14 14 14 14 14 14 14 13 14 14 14 14 13 13 12 12 12 12 12 11 11 11 13 14 14 13
12 11 15 15 22 23 17 16 14 12 11 12 13 14 13 13 14 14 13 13 13 13 14 14 14 15 15 15 15 14 14 14 14 14 15 15 15 13 13 13 12 12 12 12 12 13 13 14 13
12 13 12 13 16 20 20 17 11 12 12 13 13 13 13 14 15 14 14 13 13 14 15 15 14 14 15 15 15 14 14 14 14 15 15 15 16 15 14 13 13 12 12 12 13 13 13 14 13
11 12 12 16 18 16 16 16 10 11 12 12 13 12 13 13 14 14 14 14 14 14 14 15 14 13 12 13 13 14 13 13 13 14 16 16 16 16 15 14 13 13 13 12 13 13 12 13 13

GFSSGP_con_lsi_045.txt.gz
Lid_Strength_Index
0 2 3 5 10 11 14 12 11 10 10 9 8 9 9 9 9 10 4 3 0 0 -0 -0 -1 -1 -1 -1 -1 -1 -1 -2 -1 -1 -1 -1 -2 -1 -1 -1 -1 -1 -1 -1 -1 -1 -1 -1 -0
3 2 5 8 12 15 14 11 10 9 8 8 8 8 9 9 5 4 4 1 0 -0 -0 -0 -0 -1 -1 -1 -1 -1 -1 -2 -2 -1 -1 -1 -1 -1 -1 -1 -1 -1 -1 -1 -1 -1 -1 -0 -1
3 3 8 10 13 15 14 11 11 9 8 9 9 8 8 7 6 4 3 1 1 0 -0 -0 -0 -1 -1 -1 -1 -1 -1 -1 -2 -2 -2 -2 -1 -1 -1 -1 -1 -2 -1 -1 -1 -1 -0 -1 -0
5 6 8 12 14 12 12 12 10 9 9 8 9 10 7 5 5 3 2 1 3 0 -0 -0 -1 -1 -1 -1 -1 -1 -1 -1 -1 -2 -1 -2 -2 -1 -1 -1 -1 -1 -1 -1 -1 -1 0 1 1
6 9 12 13 13 12 11 9 9 9 9 9 8 10 9 5 3 2 2 1 3 3 0 -0 -0 -1 -1 -1 -1 -1 -1 -1 -1 -2 -2 -1 -2 -2 -1 -1 -1 -1 -1 -1 -1 -1 -0 0 1
9 10 13 14 13 11 10 8 9 9 9 9 10 10 9 5 5 3 2 2 2 2 0 -0 1 0 -0 -1 -1 -1 -1 -1 -1 -1 -2 -2 -2 -2 -1 -1 -1 -1 -1 -2 -1 -0 0 1 1
9 11 13 13 12 11 10 9 11 11 10 10 9 10 8 7 5 4 3 3 2 2 0 0 0 0 1 1 0 -0 -1 -1 -1 -1 -1 -1 -2 -2 -1 -2 -1 -1 -2 -2 -1 -0 1 1 2
9 11 13 13 13 12 10 10 9 10 10 8 9 11 10 7 4 3 4 3 3 2 1 0 1 0 0 1 2 1 0 -0 -0 -0 -0 0 0 -1 -1 -1 -2 -2 -1 -1 -1 0 1 2 3
8 13 14 13 12 12 9 10 9 9 10 10 8 9 8 6 5 5 4 4 4 3 2 1 1 0 0 1 1 2 1 1 1 1 2 2 2 -0 0 0 -2 -1 -2 -1 -0 1 2 3 5
10 13 12 10 12 11 10 11 12 12 11 10 10 9 7 7 6 6 5 4 4 4 3 2 2 1 0 -0 1 1 1 1 1 2 3 3 2 1 1 2 -0 -1 -1 -1 0 1 2 5 10
9 12 10 9 9 9 9 10 10 12 12 10 11 10 9 7 7 7 6 5 4 3 3 2 2 2 2 1 1 1 1 2 3 3 4 3 2 2 1 3 2 2 2 3 3 4 7 8 10
12 9 9 8 8 9 10 10 10 10 10 9 9 9 9 9 9 8 8 7 6 4 2 2 2 2 2 2 2 1 2 2 3 3 3 3 3 3 3 4 3 4 5 5 6 8 9 10 10
11 11 9 9 9 9 9 10 10 10 8 8 8 8 9 9 9 9 8 7 7 7 3 2 2 2 2 2 3 2 2 2 3 3 3 4 4 4 4 5 4 5 5 6 7 8 10 10 11
11 10 10 9 9 10 10 11 11 10 9 9 9 10 10 9 9 9 9 8 8 7 6 3 2 3 2 3 3 3 3 3 3 3 2 2 3 4 4 5 4 4 5 6 7 9 10 11 11
10 12 11 11 11 11 11 12 12 10 10 10 10 10 10 9 9 9 8 8 9 8 7 4 2 3 3 3 3 3 3 3 4 4 4 3 3 4 4 5 5 5 5 6 9 10 10 11 11
13 14 16 12 12 11 12 15 11 11 11 10 10 11 10 10 10 10 9 9 9 8 8 6 3 3 3 3 3 3 3 4 3 3 3 3 3 4 5 5 6 5 6 8 10 11 11 12 12
15 18 16 13 11 12 13 15 11 10 10 11 11 11 11 11 11 11 10 10 10 9 9 8 6 4 3 3 3 3 3 4 3 3 3 2 3 4 5 5 6 6 7 9 10 11 12 13 13
16 17 15 15 12 12 14 14 12 11 11 12 12 12 12 12 12 12 11 11 11 11 10 9 9 8 6 5 5 4 4 4 4 4 3 3 3 3 5 7 6 7 8 10 11 11 12 12 13
15 15 16 14 12 14 14 14 13 11 12 13 12 12 12 13 12 12 12 12 12 12 11 11 10 10 9 7 7 7 6 6 5 4 4 4 4 4 5 7 8 8 9 10 11 12 12 13 13
14 16 16 14 13 14 15 15 13 14 14 13 14 14 14 14 13 13 13 13 13 13 13 12 11 11 10 9 9 8 8 8 8 7 6 5 5 5 6 7 8 9 11 11 12 12 13 13 13
15 16 16 16 15 15 16 17 15 14 14 13 14 14 14 14 14 14 14 14 14 14 14 13 12 11 11 11 10 10 10 10 10 10 9 8 6 6 7 7 8 10 11 11 12 12 13 13 13
16 13 14 15 17 19 16 21 17 15 15 15 15 15 15 14 14 13 14 14 14 14 14 14 13 13 12 11 12 12 12 12 12 11 10 10 8 7 7 8 8 9 11 12 12 12 13 14 14
15 14 14 15 17 18 17 20 17 15 16 15 15 14 14 13 13 13 13 13 13 13 14 14 13 13 13 12 12 13 13 12 12 12 12 11 11 9 8 8 9 10 10 12 12 13 13 13 13
12 14 15 16 17 20 16 17 17 16 15 15 14 14 13 13 14 13 13 12 13 13 14 14 14 14 13 13 13 13 13 13 13 13 13 13 12 11 11 10 10 10 10 11 12 13 13 13 13
14 16 18 20 21 20 15 17 15 13 13 13 14 14 14 14 14 14 14 14 13 13 14 13 14 14 14 13 13 13 13 13 14 14 14 14 14 13 12 12 12 11 10 11 12 13 13 14 13
14 14 19 24 21 20 15 18 15 13 13 13 14 14 14 14 14 14 13 13 14 13 13 14 14 14 14 14 14 14 14 14 14 14 14 15 15 14 13 13 13 13 12 12 11 13 13 14 13
13 14 12 16 18 21 16 14 12 12 13 13 14 14 15 15 15 15 15 14 14 14 13 14 14 14 14 15 15 15 15 15 15 16 16 16 16 15 15 14 14 14 14 13 13 13 13 14 14
12 11 15 15 23 24 18 17 15 13 14 13 14 14 14 14 14 15 14 14 14 14 13 13 14 14 14 14 15 14 14 14 15 16 17 17 16 16 16 16 15 14 14 14 14 14 14 15 14
13 14 13 13 16 20 21 17 12 11 13 13 13 13 14 15 15 15 14 14 14 14 14 14 14 13 13 13 15 15 15 15 14 15 15 16 17 17 17 17 16 15 15 14 15 15 15 15 15
11 12 12 16 18 16 17 16 11 11 11 12 12 12 13 14 15 14 14 14 14 13 14 14 14 13 13 13 13 14 14 15 16 16 16 16 16 16 16 16 16 15 15 15 15 15 15 15 15

GFSSGP_con_lsi_048.txt.gz
Lid_Strength_Index
2 4 4 6 11 12 14 13 11 10 10 9 8 9 10 9 10 11 4 3 0 0 -0 -0 -1 -1 -1 -1 -1 -1 -1 -1 -1 -1 -1 -1 -1 -1 -1 -1 -1 -1 -1 -1 -1 -1 -0 0 -0
4 3 6 9 13 15 14 12 11 10 9 9 9 9 10 10 6 5 4 3 0 -0 -0 -0 -0 -1 -1 -1 -1 -1 -1 -2 -1 -1 -1 -2 -1 -1 -1 -1 -1 -1 -1 -1 -1 -1 -0 -1 -0
4 4 8 11 14 15 14 12 12 10 9 9 10 9 9 8 6 4 4 1 0 0 -0 -0 -0 -1 -1 -1 -1 -1 -1 -1 -2 -1 -1 -2 -2 -1 -1 -1 -1 -1 -1 -1 -0 -1 -1 0 -0
5 7 9 13 15 12 13 12 10 10 9 9 9 9 8 6 6 4 2 1 1 0 -0 -0 -0 -1 -1 -1 -1 -1 -1 -1 -1 -2 -2 -2 -1 -1 -1 -1 -1 -1 -1 -1 -1 0 0 1 1
7 10 13 14 14 12 12 10 10 10 10 10 10 9 10 5 3 3 2 2 1 1 0 -0 -0 -1 -1 -1 -1 -1 -1 -1 -1 -2 -2 -2 -2 -1 -1 -1 -1 -1 -1 -1 -1 0 1 1 2
9 11 14 15 14 12 11 10 10 11 11 10 10 8 10 6 4 3 3 3 2 1 0 -0 1 1 -0 -1 -1 -1 -1 -1 -1 -2 -2 -1 -2 -2 -1 -1 -1 -1 -1 -1 -1 -0 1 1 2
10 12 14 14 14 12 11 10 11 12 12 11 10 11 9 8 6 3 3 3 3 2 1 0 0 1 1 0 0 -1 -1 -1 -1 -1 -1 -1 -2 -2 -1 -1 -1 -1 -1 -1 -1 -0 1 1 2
10 11 13 14 14 13 10 10 10 11 11 9 9 12 11 8 6 4 4 3 3 2 1 1 0 0 0 0 1 1 0 -0 -0 -0 0 0 -0 -1 -1 -1 -2 -1 -2 -1 -1 0 1 2 3
9 14 15 14 14 12 10 11 10 10 11 11 10 10 9 7 6 5 5 5 5 3 2 1 1 1 0 1 1 2 1 1 1 1 1 2 1 1 1 -0 -1 -2 -2 -1 -1 0 1 3 5
11 14 13 11 12 12 11 12 11 12 11 11 11 10 8 7 6 6 6 6 5 4 3 2 1 1 1 0 1 1 0 0 1 1 2 2 2 3 3 2 -1 -2 -2 -2 -0 0 2 6 11
10 13 11 10 10 10 10 11 10 12 12 11 11 11 10 8 8 7 7 6 6 4 3 2 2 1 1 0 1 1 2 2 2 2 3 2 2 3 4 4 2 2 1 2 2 4 6 8 10
12 9 9 9 9 10 11 9 10 10 9 9 9 10 10 10 9 8 8 8 6 5 3 2 2 2 2 1 1 1 1 2 3 3 4 3 3 4 5 5 4 4 4 5 6 7 7 10 10
12 11 10 9 10 10 10 10 11 10 8 9 9 9 11 11 11 10 10 9 8 7 5 3 2 2 2 2 2 1 1 2 3 4 4 3 2 4 6 6 5 5 5 6 7 8 9 11 11
11 11 11 10 10 11 11 12 11 10 10 9 10 11 11 10 11 11 11 10 10 9 8 4 2 2 2 3 3 2 3 3 3 3 3 2 2 4 6 6 6 6 5 6 7 8 10 11 11
11 12 12 11 11 12 12 14 12 10 11 11 11 12 11 11 11 12 11 11 11 9 8 5 3 2 3 3 3 3 3 3 4 4 4 3 3 4 5 6 6 5 6 6 7 9 10 11 11
14 14 16 13 12 12 13 15 11 10 12 11 12 13 12 12 12 12 12 12 11 10 10 7 3 3 4 4 4 4 4 4 3 3 3 3 3 4 6 6 6 4 5 6 8 10 11 12 12
15 18 17 14 11 12 14 15 12 11 13 12 13 13 13 13 13 12 12 12 12 11 11 10 9 7 5 4 4 4 4 4 3 2 3 3 3 4 5 6 6 6 6 8 9 11 11 12 13
17 17 16 15 12 13 14 14 13 12 12 14 15 15 14 14 14 13 13 12 12 12 12 11 10 9 8 6 5 5 5 5 3 3 2 2 2 3 4 4 4 5 6 9 10 11 12 12 12
15 16 17 15 12 14 14 15 15 14 14 15 15 15 15 15 14 13 13 13 13 13 13 12 12 12 10 10 9 8 7 7 8 7 6 4 3 3 4 5 5 6 7 8 10 11 12 13 13
15 16 16 15 13 15 15 16 16 15 15 15 15 16 15 15 15 14 14 14 14 14 14 13 13 13 12 11 11 10 10 10 10 10 10 9 7 6 5 5 7 8 8 9 10 11 13 13 13
15 16 16 16 15 16 17 17 17 15 15 14 15 15 14 15 15 15 15 15 15 15 15 14 13 13 13 12 12 11 11 12 12 11 11 11 10 8 8 8 8 8 9 10 10 11 12 12 14
16 14 14 15 17 19 16 20 17 16 16 15 15 16 15 15 14 14 14 14 14 15 14 14 14 13 13 13 13 13 14 14 14 13 12 12 11 11 11 10 9 10 11 10 11 11 11 12 13
15 14 15 16 18 18 18 19 18 15 17 16 15 15 15 14 14 14 14 14 14 14 15 15 14 13 13 13 14 14 14 14 14 14 14 14 13 12 12 12 12 11 10 11 11 11 12 12 12
13 15 15 17 18 21 17 18 18 17 15 15 15 15 15 15 15 14 14 14 14 14 14 15 15 14 14 14 14 15 15 14 15 15 15 15 14 13 13 13 13 12 12 12 12 12 13 13 13
15 16 19 20 21 20 16 18 16 14 14 14 15 15 15 15 15 15 15 15 14 15 15 14 15 15 15 14 15 15 15 15 15 16 16 16 16 15 15 14 14 14 13 13 13 13 13 14 14
15 15 19 24 22 19 16 18 16 14 14 13 13 14 14 14 14 14 14 14 14 14 14 15 14 15 15 14 15 15 15 15 14 15 16 16 16 16 15 15 15 15 15 15 14 14 14 14 14
14 16 14 17 21 21 17 16 14 14 15 14 14 15 15 15 15 14 13 14 14 13 14 14 15 15 15 15 13 13 14 14 15 15 15 15 16 15 15 15 16 16 16 15 15 16 16 16 15
13 12 16 17 23 23 19 17 17 16 15 14 15 15 15 14 14 14 14 14 14 14 14 14 14 14 15 15 15 14 13 13 14 14 15 15 15 16 16 16 16 16 15 16 16 17 16 17 16
14 15 15 14 17 20 22 18 13 13 14 14 14 13 14 14 13 14 13 13 14 14 15 14 13 14 14 14 14 15 15 14 14 14 15 16 16 16 16 16 16 16 16 16 17 17 17 17 17
12 13 13 18 19 16 17 17 12 11 12 12 12 12 13 14 14 14 14 14 14 15 14 14 14 14 14 14 14 15 14 15 15 15 15 14 14 13 14 14 16 16 16 17 18 17 17 17 17